Time,TemperatureF,DewpointF,PressureIn,WindDirection,WindDirectionDegrees,WindSpeedMPH,WindSpeedGustMPH,Humidity,HourlyPrecipIn,Conditions,Clouds,dailyrainin,SoftwareType,DateUTC
2013-03-25 00:00:00,32.8,0.9,30.14,NW,325,2.0,3.0,25,0.00,,---,0.00,VWS V13.01,2013-03-25 06:00:00,
2013-03-25 00:02:00,32.9,0.9,30.11,NW,325,2.0,5.0,25,0.00,,---,0.00,VWS V13.01,2013-03-25 06:02:00,
2013-03-25 00:05:00,33.2,1.2,30.11,NW,325,3.0,5.0,25,0.00,,---,0.00,VWS V13.01,2013-03-25 06:05:00,
2013-03-25 00:06:00,33.3,1.3,30.11,NW,325,1.0,5.0,25,0.00,,---,0.00,VWS V13.01,2013-03-25 06:06:00,
2013-03-25 00:08:00,33.4,1.4,30.11,NW,323,3.0,5.0,25,0.00,,---,0.00,VWS V13.01,2013-03-25 06:08:00,
2013-03-25 00:09:00,33.4,1.4,30.11,NW,325,2.0,5.0,25,0.00,,---,0.00,VWS V13.01,2013-03-25 06:09:00,
2013-03-25 00:11:00,33.5,1.5,30.11,NW,325,3.0,5.0,25,0.00,,---,0.00,VWS V13.01,2013-03-25 06:11:00,
2013-03-25 00:13:00,33.6,1.5,30.11,NW,325,3.0,5.0,25,0.00,,---,0.00,VWS V13.01,2013-03-25 06:13:00,
2013-03-25 00:15:00,33.7,1.6,30.11,NW,325,1.0,3.0,25,0.00,,---,0.00,VWS V13.01,2013-03-25 06:15:00,
2013-03-25 00:18:00,33.8,1.7,30.12,NW,325,2.0,4.0,25,0.00,,---,0.00,VWS V13.01,2013-03-25 06:18:00,
2013-03-25 00:19:00,33.9,1.8,30.11,NW,325,3.0,5.0,25,0.00,,---,0.00,VWS V13.01,2013-03-25 06:19:00,
2013-03-25 00:20:00,33.9,1.8,30.11,NW,325,2.0,5.0,25,0.00,,---,0.00,VWS V13.01,2013-03-25 06:20:00,
2013-03-25 00:23:00,34.1,2.0,30.11,NW,325,1.0,5.0,25,0.00,,---,0.00,VWS V13.01,2013-03-25 06:23:00,
2013-03-25 00:26:00,34.2,2.1,30.11,NW,325,3.0,5.0,25,0.00,,---,0.00,VWS V13.01,2013-03-25 06:26:00,
2013-03-25 00:27:00,34.3,2.2,30.11,NW,324,3.0,5.0,25,0.00,,---,0.00,VWS V13.01,2013-03-25 06:27:00,
2013-03-25 00:28:00,34.3,2.2,30.11,NW,324,3.0,5.0,25,0.00,,---,0.00,VWS V13.01,2013-03-25 06:28:00,
2013-03-25 00:30:00,34.4,2.2,30.11,NW,324,2.0,3.0,25,0.00,,---,0.00,VWS V13.01,2013-03-25 06:30:00,
2013-03-25 00:32:00,34.4,2.2,30.11,NW,324,3.0,5.0,25,0.00,,---,0.00,VWS V13.01,2013-03-25 06:32:00,
2013-03-25 00:33:00,34.4,2.2,30.11,NW,323,3.0,5.0,25,0.00,,---,0.00,VWS V13.01,2013-03-25 06:33:00,
2013-03-25 00:35:00,34.4,2.2,30.11,NW,324,3.0,5.0,25,0.00,,---,0.00,VWS V13.01,2013-03-25 06:35:00,
2013-03-25 00:37:00,34.4,2.2,30.11,NW,324,1.0,5.0,25,0.00,,---,0.00,VWS V13.01,2013-03-25 06:37:00,
2013-03-25 00:40:00,34.4,2.2,30.12,NW,324,0.0,5.0,25,0.00,,---,0.00,VWS V13.01,2013-03-25 06:40:00,
2013-03-25 00:43:00,34.4,2.2,30.11,NW,323,4.0,5.0,25,0.00,,---,0.00,VWS V13.01,2013-03-25 06:43:00,
2013-03-25 00:45:00,34.4,2.2,30.11,NW,324,3.0,3.0,25,0.00,,---,0.00,VWS V13.01,2013-03-25 06:45:00,
2013-03-25 00:46:00,34.4,2.2,30.11,NW,324,3.0,4.0,25,0.00,,---,0.00,VWS V13.01,2013-03-25 06:46:00,
2013-03-25 00:50:00,34.2,2.1,30.12,NW,323,4.0,4.0,25,0.00,,---,0.00,VWS V13.01,2013-03-25 06:50:00,
2013-03-25 00:51:00,34.1,2.0,30.12,NW,324,3.0,5.0,25,0.00,,---,0.00,VWS V13.01,2013-03-25 06:51:00,
2013-03-25 00:53:00,33.9,1.8,30.12,NW,324,3.0,5.0,25,0.00,,---,0.00,VWS V13.01,2013-03-25 06:53:00,
2013-03-25 00:54:00,33.9,1.8,30.12,NW,323,3.0,5.0,25,0.00,,---,0.00,VWS V13.01,2013-03-25 06:54:00,
2013-03-25 00:58:00,33.7,1.6,30.12,NW,324,3.0,5.0,25,0.00,,---,0.00,VWS V13.01,2013-03-25 06:58:00,
2013-03-25 00:59:00,33.7,1.6,30.12,NW,324,2.0,5.0,25,0.00,,---,0.00,VWS V13.01,2013-03-25 06:59:00,
2013-03-25 01:00:00,33.6,1.5,30.11,NW,324,4.0,4.0,25,0.00,,---,0.00,VWS V13.01,2013-03-25 07:00:00,
2013-03-25 01:02:00,33.5,1.5,30.11,NW,323,2.0,6.0,25,0.00,,---,0.00,VWS V13.01,2013-03-25 07:02:00,
2013-03-25 01:04:00,33.4,1.4,30.11,NW,323,2.0,6.0,25,0.00,,---,0.00,VWS V13.01,2013-03-25 07:04:00,
2013-03-25 01:05:00,33.4,1.4,30.11,NW,324,5.0,6.0,25,0.00,,---,0.00,VWS V13.01,2013-03-25 07:05:00,
2013-03-25 01:08:00,33.3,1.3,30.11,NW,324,3.0,6.0,25,0.00,,---,0.00,VWS V13.01,2013-03-25 07:08:00,
2013-03-25 01:09:00,33.2,1.2,30.11,NW,324,2.0,6.0,25,0.00,,---,0.00,VWS V13.01,2013-03-25 07:09:00,
2013-03-25 01:11:00,33.2,2.0,30.11,NW,324,3.0,6.0,26,0.00,,---,0.00,VWS V13.01,2013-03-25 07:11:00,
2013-03-25 01:14:00,33.2,2.0,30.11,NW,323,2.0,6.0,26,0.00,,---,0.00,VWS V13.01,2013-03-25 07:14:00,
2013-03-25 01:15:00,33.2,2.0,30.12,NW,323,3.0,3.0,26,0.00,,---,0.00,VWS V13.01,2013-03-25 07:15:00,
2013-03-25 01:18:00,33.2,2.0,30.12,NW,324,2.0,5.0,26,0.00,,---,0.00,VWS V13.01,2013-03-25 07:18:00,
2013-03-25 01:20:00,33.1,2.0,30.12,NW,324,4.0,5.0,26,0.00,,---,0.00,VWS V13.01,2013-03-25 07:20:00,
2013-03-25 01:21:00,33.1,2.0,30.12,NW,323,2.0,6.0,26,0.00,,---,0.00,VWS V13.01,2013-03-25 07:21:00,
2013-03-25 01:23:00,33.0,1.9,30.12,NW,323,3.0,6.0,26,0.00,,---,0.00,VWS V13.01,2013-03-25 07:23:00,
2013-03-25 01:25:00,32.8,1.7,30.12,NW,323,2.0,6.0,26,0.00,,---,0.00,VWS V13.01,2013-03-25 07:25:00,
2013-03-25 01:27:00,32.5,1.4,30.12,NW,324,4.0,6.0,26,0.00,,---,0.00,VWS V13.01,2013-03-25 07:27:00,
2013-03-25 01:29:00,32.6,1.5,30.12,NW,322,5.0,7.0,26,0.00,,---,0.00,VWS V13.01,2013-03-25 07:29:00,
2013-03-25 01:31:00,32.8,1.7,30.12,NW,322,4.0,6.0,26,0.00,,---,0.00,VWS V13.01,2013-03-25 07:31:00,
2013-03-25 01:35:00,33.4,2.2,30.12,NW,322,4.0,6.0,26,0.00,,---,0.00,VWS V13.01,2013-03-25 07:35:00,
2013-03-25 01:36:00,33.5,2.3,30.12,NW,322,3.0,6.0,26,0.00,,---,0.00,VWS V13.01,2013-03-25 07:36:00,
2013-03-25 01:41:00,34.1,2.8,30.13,NW,310,6.0,7.0,26,0.00,,---,0.00,VWS V13.01,2013-03-25 07:41:00,
2013-03-25 01:43:00,34.2,2.9,30.12,WNW,297,3.0,8.0,26,0.00,,---,0.00,VWS V13.01,2013-03-25 07:43:00,
2013-03-25 01:44:00,34.2,2.9,30.13,WNW,297,5.0,8.0,26,0.00,,---,0.00,VWS V13.01,2013-03-25 07:44:00,
2013-03-25 01:46:00,34.2,2.9,30.13,WNW,298,4.0,9.0,26,0.00,,---,0.00,VWS V13.01,2013-03-25 07:46:00,
2013-03-25 01:47:00,34.2,2.9,30.13,WNW,298,5.0,9.0,26,0.00,,---,0.00,VWS V13.01,2013-03-25 07:47:00,
2013-03-25 01:49:00,34.1,2.8,30.13,WNW,299,4.0,9.0,26,0.00,,---,0.00,VWS V13.01,2013-03-25 07:49:00,
2013-03-25 01:54:00,33.9,2.7,30.13,WNW,292,4.0,9.0,26,0.00,,---,0.00,VWS V13.01,2013-03-25 07:54:00,
2013-03-25 01:55:00,33.8,2.6,30.13,WNW,293,4.0,9.0,26,0.00,,---,0.00,VWS V13.01,2013-03-25 07:55:00,
2013-03-25 01:56:00,33.8,2.6,30.12,WNW,295,7.0,9.0,26,0.00,,---,0.00,VWS V13.01,2013-03-25 07:56:00,
2013-03-25 02:01:00,33.5,2.3,30.10,WNW,299,4.0,7.0,26,0.00,,---,0.00,VWS V13.01,2013-03-25 08:01:00,
2013-03-25 02:02:00,33.4,2.2,30.10,WNW,301,6.0,9.0,26,0.00,,---,0.00,VWS V13.01,2013-03-25 08:02:00,
2013-03-25 02:03:00,33.4,2.2,30.11,WNW,303,6.0,11.0,26,0.00,,---,0.00,VWS V13.01,2013-03-25 08:03:00,
2013-03-25 02:07:00,33.0,1.9,30.11,NW,311,6.0,11.0,26,0.00,,---,0.00,VWS V13.01,2013-03-25 08:07:00,
2013-03-25 02:08:00,32.9,1.8,30.11,NW,309,6.0,11.0,26,0.00,,---,0.00,VWS V13.01,2013-03-25 08:08:00,
2013-03-25 02:10:00,32.6,1.5,30.11,NW,304,6.0,11.0,26,0.00,,---,0.00,VWS V13.01,2013-03-25 08:10:00,
2013-03-25 02:13:00,32.6,1.5,30.11,WNW,300,5.0,11.0,26,0.00,,---,0.00,VWS V13.01,2013-03-25 08:13:00,
2013-03-25 02:14:00,32.5,1.4,30.11,WNW,302,6.0,11.0,26,0.00,,---,0.00,VWS V13.01,2013-03-25 08:14:00,
2013-03-25 02:17:00,32.5,1.4,30.11,WNW,302,7.0,7.0,26,0.00,,---,0.00,VWS V13.01,2013-03-25 08:17:00,
2013-03-25 02:19:00,32.7,2.4,30.11,WNW,300,5.0,10.0,27,0.00,,---,0.00,VWS V13.01,2013-03-25 08:19:00,
2013-03-25 02:20:00,32.8,2.5,30.11,NE,51,7.0,10.0,27,0.00,,---,0.00,VWS V13.01,2013-03-25 08:20:00,
2013-03-25 02:24:00,31.9,0.9,30.12,NNE,20,6.0,15.0,26,0.00,,---,0.00,VWS V13.01,2013-03-25 08:24:00,
2013-03-25 02:26:00,31.7,0.8,30.12,NNW,342,4.0,15.0,26,0.00,,---,0.00,VWS V13.01,2013-03-25 08:26:00,
2013-03-25 02:27:00,31.7,0.8,30.12,NNW,339,4.0,15.0,26,0.00,,---,0.00,VWS V13.01,2013-03-25 08:27:00,
2013-03-25 02:29:00,31.5,1.4,30.12,NNW,338,3.0,5.0,27,0.00,,---,0.00,VWS V13.01,2013-03-25 08:29:00,
2013-03-25 02:30:00,31.4,1.3,30.14,NNW,338,2.0,5.0,27,0.00,,---,0.00,VWS V13.01,2013-03-25 08:30:00,
2013-03-25 02:35:00,30.6,0.6,30.13,NNW,338,4.0,6.0,27,0.00,,---,0.00,VWS V13.01,2013-03-25 08:35:00,
2013-03-25 02:37:00,30.2,0.3,30.13,NNW,334,4.0,7.0,27,0.00,,---,0.00,VWS V13.01,2013-03-25 08:37:00,
2013-03-25 02:39:00,29.9,0.0,30.13,NNW,334,2.0,7.0,27,0.00,,---,0.00,VWS V13.01,2013-03-25 08:39:00,
2013-03-25 02:40:00,29.7,-0.2,30.13,NNW,334,3.0,7.0,27,0.00,,---,0.00,VWS V13.01,2013-03-25 08:40:00,
2013-03-25 02:42:00,29.4,-0.4,30.13,NNW,334,5.0,7.0,27,0.00,,---,0.00,VWS V13.01,2013-03-25 08:42:00,
2013-03-25 02:44:00,29.2,0.2,30.15,NNW,333,10.0,10.0,28,0.00,,---,0.00,VWS V13.01,2013-03-25 08:44:00,
2013-03-25 02:48:00,28.8,-0.2,30.14,NNW,338,11.0,11.0,28,0.00,,---,0.00,VWS V13.01,2013-03-25 08:48:00,
2013-03-25 02:50:00,28.8,1.3,30.14,NNW,338,7.0,11.0,30,0.00,,---,0.00,VWS V13.01,2013-03-25 08:50:00,
2013-03-25 02:55:00,28.7,1.9,30.14,NNW,344,8.0,11.0,31,0.00,,---,0.00,VWS V13.01,2013-03-25 08:55:00,
2013-03-25 02:56:00,28.6,2.5,30.14,NNW,327,5.0,13.0,32,0.00,,---,0.00,VWS V13.01,2013-03-25 08:56:00,
2013-03-25 02:57:00,28.6,2.5,30.14,NNW,334,6.0,13.0,32,0.00,,---,0.00,VWS V13.01,2013-03-25 08:57:00,
2013-03-25 03:02:00,28.3,3.5,30.14,NNW,329,10.0,12.0,34,0.00,,---,0.00,VWS V13.01,2013-03-25 09:02:00,
2013-03-25 03:06:00,28.0,3.9,30.14,NNW,343,11.0,15.0,35,0.00,,---,0.00,VWS V13.01,2013-03-25 09:06:00,
2013-03-25 03:10:00,27.9,3.8,30.14,NNW,344,11.0,16.0,35,0.00,,---,0.00,VWS V13.01,2013-03-25 09:10:00,
2013-03-25 03:13:00,27.9,4.4,30.14,NNW,342,4.0,16.0,36,0.00,,---,0.00,VWS V13.01,2013-03-25 09:13:00,
2013-03-25 03:14:00,27.9,4.4,30.14,NNW,345,14.0,16.0,36,0.00,,---,0.00,VWS V13.01,2013-03-25 09:14:00,
2013-03-25 03:16:00,27.8,4.3,30.14,NNW,336,7.0,11.0,36,0.00,,---,0.00,VWS V13.01,2013-03-25 09:16:00,
2013-03-25 03:17:00,27.8,4.3,30.14,NNW,347,13.0,13.0,36,0.00,,---,0.00,VWS V13.01,2013-03-25 09:17:00,
2013-03-25 03:18:00,27.8,4.3,30.14,NNW,334,7.0,15.0,36,0.00,,---,0.00,VWS V13.01,2013-03-25 09:18:00,
2013-03-25 03:19:00,27.8,4.3,30.14,NNW,342,4.0,15.0,36,0.00,,---,0.00,VWS V13.01,2013-03-25 09:19:00,
2013-03-25 03:22:00,27.7,4.8,30.13,NNW,341,7.0,16.0,37,0.00,,---,0.00,VWS V13.01,2013-03-25 09:22:00,
2013-03-25 03:24:00,27.8,4.9,30.13,NNW,331,9.0,16.0,37,0.00,,---,0.00,VWS V13.01,2013-03-25 09:24:00,
2013-03-25 03:27:00,27.7,4.8,30.13,NNW,340,7.0,16.0,37,0.00,,---,0.00,VWS V13.01,2013-03-25 09:27:00,
2013-03-25 03:29:00,27.7,4.8,30.14,North,355,7.0,16.0,37,0.00,,---,0.00,VWS V13.01,2013-03-25 09:29:00,
2013-03-25 03:31:00,27.7,4.8,30.14,NNW,327,10.0,12.0,37,0.00,,---,0.00,VWS V13.01,2013-03-25 09:31:00,
2013-03-25 03:35:00,27.6,4.8,30.14,NNW,338,13.0,19.0,37,0.00,,---,0.00,VWS V13.01,2013-03-25 09:35:00,
2013-03-25 03:40:00,27.2,4.4,30.14,NW,326,7.0,19.0,37,0.00,,---,0.00,VWS V13.01,2013-03-25 09:40:00,
2013-03-25 03:42:00,27.1,4.3,30.14,NNW,333,5.0,19.0,37,0.00,,---,0.00,VWS V13.01,2013-03-25 09:42:00,
2013-03-25 03:44:00,27.0,4.8,30.15,NW,322,11.0,19.0,38,0.00,,---,0.00,VWS V13.01,2013-03-25 09:44:00,
2013-03-25 03:48:00,27.0,4.8,30.14,NW,315,10.0,14.0,38,0.00,,---,0.00,VWS V13.01,2013-03-25 09:48:00,
2013-03-25 03:50:00,27.0,4.8,30.14,NNW,330,12.0,18.0,38,0.00,,---,0.00,VWS V13.01,2013-03-25 09:50:00,
2013-03-25 03:51:00,26.9,4.7,30.15,NNW,334,7.0,18.0,38,0.00,,---,0.00,VWS V13.01,2013-03-25 09:51:00,
2013-03-25 03:52:00,26.9,4.7,30.15,NNW,332,8.0,18.0,38,0.00,,---,0.00,VWS V13.01,2013-03-25 09:52:00,
2013-03-25 03:55:00,26.7,4.5,30.14,NNW,330,7.0,18.0,38,0.00,,---,0.00,VWS V13.01,2013-03-25 09:55:00,
2013-03-25 03:56:00,26.6,4.4,30.14,NW,317,13.0,18.0,38,0.00,,---,0.00,VWS V13.01,2013-03-25 09:56:00,
2013-03-25 03:57:00,26.5,4.9,30.14,NNW,329,11.0,18.0,39,0.00,,---,0.00,VWS V13.01,2013-03-25 09:57:00,
2013-03-25 04:00:00,26.4,4.8,30.15,NNW,331,12.0,15.0,39,0.00,,---,0.00,VWS V13.01,2013-03-25 10:00:00,
2013-03-25 04:03:00,26.3,5.3,30.15,NNW,336,14.0,18.0,40,0.00,,---,0.00,VWS V13.01,2013-03-25 10:03:00,
2013-03-25 04:04:00,26.2,5.2,30.15,NNW,342,14.0,18.0,40,0.00,,---,0.00,VWS V13.01,2013-03-25 10:04:00,
2013-03-25 04:07:00,26.2,5.2,30.15,NNE,22,13.0,18.0,40,0.00,,---,0.00,VWS V13.01,2013-03-25 10:07:00,
2013-03-25 04:08:00,26.2,5.2,30.15,NNW,345,12.0,18.0,40,0.00,,---,0.00,VWS V13.01,2013-03-25 10:08:00,
2013-03-25 04:09:00,26.2,5.7,30.15,NNW,336,7.0,18.0,41,0.00,,---,0.00,VWS V13.01,2013-03-25 10:09:00,
2013-03-25 04:13:00,26.1,5.6,30.15,NNW,347,12.0,18.0,41,0.00,,---,0.00,VWS V13.01,2013-03-25 10:13:00,
2013-03-25 04:14:00,26.1,5.6,30.15,NNW,337,11.0,18.0,41,0.00,,---,0.00,VWS V13.01,2013-03-25 10:14:00,
2013-03-25 04:16:00,26.0,5.5,30.15,NNW,338,8.0,15.0,41,0.00,,---,0.00,VWS V13.01,2013-03-25 10:16:00,
2013-03-25 04:17:00,26.0,5.5,30.15,North,360,6.0,15.0,41,0.00,,---,0.00,VWS V13.01,2013-03-25 10:17:00,
2013-03-25 04:22:00,25.8,5.9,30.15,NW,319,14.0,17.0,42,0.00,,---,0.00,VWS V13.01,2013-03-25 10:22:00,
2013-03-25 04:26:00,25.7,5.8,30.15,NW,326,14.0,18.0,42,0.00,,---,0.00,VWS V13.01,2013-03-25 10:26:00,
2013-03-25 04:27:00,25.6,5.7,30.15,NW,325,12.0,18.0,42,0.00,,---,0.00,VWS V13.01,2013-03-25 10:27:00,
2013-03-25 04:31:00,25.5,6.1,30.15,NW,325,13.0,14.0,43,0.00,,---,0.00,VWS V13.01,2013-03-25 10:31:00,
2013-03-25 04:33:00,25.5,6.1,30.16,NW,325,12.0,14.0,43,0.00,,---,0.00,VWS V13.01,2013-03-25 10:33:00,
2013-03-25 04:34:00,25.4,6.0,30.16,NNW,334,11.0,15.0,43,0.00,,---,0.00,VWS V13.01,2013-03-25 10:34:00,
2013-03-25 04:37:00,25.4,6.0,30.16,NNW,330,9.0,15.0,43,0.00,,---,0.00,VWS V13.01,2013-03-25 10:37:00,
2013-03-25 04:40:00,25.3,5.9,30.16,NW,324,7.0,15.0,43,0.00,,---,0.00,VWS V13.01,2013-03-25 10:40:00,
2013-03-25 04:41:00,25.2,5.9,30.16,NNW,335,10.0,15.0,43,0.00,,---,0.00,VWS V13.01,2013-03-25 10:41:00,
2013-03-25 04:45:00,25.2,5.9,30.17,NW,319,5.0,6.0,43,0.00,,---,0.00,VWS V13.01,2013-03-25 10:45:00,
2013-03-25 04:46:00,25.1,5.8,30.17,NW,313,10.0,12.0,43,0.00,,---,0.00,VWS V13.01,2013-03-25 10:46:00,
2013-03-25 04:48:00,25.1,6.3,30.17,NW,313,3.0,12.0,44,0.00,,---,0.00,VWS V13.01,2013-03-25 10:48:00,
2013-03-25 04:49:00,25.0,6.2,30.17,NW,313,4.0,12.0,44,0.00,,---,0.00,VWS V13.01,2013-03-25 10:49:00,
2013-03-25 04:51:00,25.0,6.2,30.17,NW,313,2.0,12.0,44,0.00,,---,0.00,VWS V13.01,2013-03-25 10:51:00,
2013-03-25 04:53:00,24.9,6.1,30.18,NW,313,0.0,12.0,44,0.00,,---,0.00,VWS V13.01,2013-03-25 10:53:00,
2013-03-25 04:55:00,24.8,6.5,30.18,NW,313,0.0,12.0,45,0.00,,---,0.00,VWS V13.01,2013-03-25 10:55:00,
2013-03-25 04:56:00,24.8,6.0,30.18,NW,313,1.0,12.0,44,0.00,,---,0.00,VWS V13.01,2013-03-25 10:56:00,
2013-03-25 04:59:00,24.6,5.8,30.18,NW,313,4.0,12.0,44,0.00,,---,0.00,VWS V13.01,2013-03-25 10:59:00,
2013-03-25 05:02:00,24.5,5.7,30.18,NW,313,3.0,4.0,44,0.00,,---,0.00,VWS V13.01,2013-03-25 11:02:00,
2013-03-25 05:07:00,24.4,6.1,30.19,NW,311,7.0,7.0,45,0.00,,---,0.00,VWS V13.01,2013-03-25 11:07:00,
2013-03-25 05:08:00,24.4,6.1,30.19,NW,314,7.0,11.0,45,0.00,,---,0.00,VWS V13.01,2013-03-25 11:08:00,
2013-03-25 05:09:00,24.4,6.1,30.19,NW,316,5.0,11.0,45,0.00,,---,0.00,VWS V13.01,2013-03-25 11:09:00,
2013-03-25 05:10:00,24.4,6.1,30.19,NW,322,9.0,11.0,45,0.00,,---,0.00,VWS V13.01,2013-03-25 11:10:00,
2013-03-25 05:13:00,24.3,6.0,30.19,NW,323,5.0,11.0,45,0.00,,---,0.00,VWS V13.01,2013-03-25 11:13:00,
2013-03-25 05:15:00,24.2,5.9,30.19,NW,322,3.0,6.0,45,0.00,,---,0.00,VWS V13.01,2013-03-25 11:15:00,
2013-03-25 05:16:00,24.2,5.9,30.20,NNW,336,9.0,10.0,45,0.00,,---,0.00,VWS V13.01,2013-03-25 11:16:00,
2013-03-25 05:20:00,24.1,5.8,30.19,North,350,5.0,10.0,45,0.00,,---,0.00,VWS V13.01,2013-03-25 11:20:00,
2013-03-25 05:22:00,24.0,6.2,30.20,North,350,5.0,10.0,46,0.00,,---,0.00,VWS V13.01,2013-03-25 11:22:00,
2013-03-25 05:23:00,23.9,6.1,30.20,NNW,348,7.0,10.0,46,0.00,,---,0.00,VWS V13.01,2013-03-25 11:23:00,
2013-03-25 05:25:00,23.9,6.1,30.20,NNW,344,3.0,10.0,46,0.00,,---,0.00,VWS V13.01,2013-03-25 11:25:00,
2013-03-25 05:27:00,23.8,6.1,30.20,NNW,344,3.0,10.0,46,0.00,,---,0.00,VWS V13.01,2013-03-25 11:27:00,
2013-03-25 05:29:00,23.7,6.0,30.20,NNW,337,6.0,10.0,46,0.00,,---,0.00,VWS V13.01,2013-03-25 11:29:00,
2013-03-25 05:33:00,23.6,6.3,30.20,NNW,339,6.0,10.0,47,0.00,,---,0.00,VWS V13.01,2013-03-25 11:33:00,
2013-03-25 05:34:00,23.6,6.3,30.20,NNW,340,7.0,10.0,47,0.00,,---,0.00,VWS V13.01,2013-03-25 11:34:00,
2013-03-25 05:35:00,23.6,6.3,30.20,NNW,338,7.0,10.0,47,0.00,,---,0.00,VWS V13.01,2013-03-25 11:35:00,
2013-03-25 05:38:00,23.5,6.2,30.20,NNW,341,10.0,12.0,47,0.00,,---,0.00,VWS V13.01,2013-03-25 11:38:00,
2013-03-25 05:40:00,23.5,6.2,30.20,NNW,327,6.0,12.0,47,0.00,,---,0.00,VWS V13.01,2013-03-25 11:40:00,
2013-03-25 05:42:00,23.5,6.2,30.20,NNW,341,5.0,12.0,47,0.00,,---,0.00,VWS V13.01,2013-03-25 11:42:00,
2013-03-25 05:44:00,23.4,6.2,30.20,NNW,342,4.0,12.0,47,0.00,,---,0.00,VWS V13.01,2013-03-25 11:44:00,
2013-03-25 05:45:00,23.4,6.2,30.21,NNW,341,4.0,5.0,47,0.00,,---,0.00,VWS V13.01,2013-03-25 11:45:00,
2013-03-25 05:48:00,23.4,6.6,30.21,NNW,337,6.0,6.0,48,0.00,,---,0.00,VWS V13.01,2013-03-25 11:48:00,
2013-03-25 05:50:00,23.3,6.5,30.21,NNW,345,7.0,9.0,48,0.00,,---,0.00,VWS V13.01,2013-03-25 11:50:00,
2013-03-25 05:52:00,23.2,6.4,30.21,NNW,341,6.0,10.0,48,0.00,,---,0.00,VWS V13.01,2013-03-25 11:52:00,
2013-03-25 05:55:00,23.2,6.4,30.21,North,350,6.0,10.0,48,0.00,,---,0.00,VWS V13.01,2013-03-25 11:55:00,
2013-03-25 05:57:00,23.2,6.4,30.21,NNW,348,5.0,10.0,48,0.00,,---,0.00,VWS V13.01,2013-03-25 11:57:00,
2013-03-25 06:01:00,23.1,6.8,30.22,NNW,334,3.0,11.0,49,0.00,,---,0.00,VWS V13.01,2013-03-25 12:01:00,
2013-03-25 06:04:00,23.0,6.7,30.22,NNW,336,5.0,11.0,49,0.00,,---,0.00,VWS V13.01,2013-03-25 12:04:00,
2013-03-25 06:09:00,22.9,6.6,30.23,NNW,332,3.0,11.0,49,0.00,,---,0.00,VWS V13.01,2013-03-25 12:09:00,
2013-03-25 06:10:00,22.9,6.6,30.23,NNW,339,6.0,11.0,49,0.00,,---,0.00,VWS V13.01,2013-03-25 12:10:00,
2013-03-25 06:11:00,22.9,6.6,30.23,NNW,341,7.0,11.0,49,0.00,,---,0.00,VWS V13.01,2013-03-25 12:11:00,
2013-03-25 06:15:00,22.9,6.6,30.23,NNW,330,8.0,9.0,49,0.00,,---,0.00,VWS V13.01,2013-03-25 12:15:00,
2013-03-25 06:16:00,22.9,6.6,30.24,NNW,337,4.0,9.0,49,0.00,,---,0.00,VWS V13.01,2013-03-25 12:16:00,
2013-03-25 06:18:00,22.8,6.5,30.24,NNW,329,10.0,10.0,49,0.00,,---,0.00,VWS V13.01,2013-03-25 12:18:00,
2013-03-25 06:20:00,22.8,6.5,30.24,NNW,346,5.0,10.0,49,0.00,,---,0.00,VWS V13.01,2013-03-25 12:20:00,
2013-03-25 06:22:00,22.7,6.4,30.24,NNW,342,3.0,10.0,49,0.00,,---,0.00,VWS V13.01,2013-03-25 12:22:00,
2013-03-25 06:23:00,22.7,6.4,30.24,NNW,342,4.0,10.0,49,0.00,,---,0.00,VWS V13.01,2013-03-25 12:23:00,
2013-03-25 06:26:00,22.6,6.8,30.24,NNW,334,2.0,10.0,50,0.00,,---,0.00,VWS V13.01,2013-03-25 12:26:00,
2013-03-25 06:29:00,22.5,6.7,30.24,NNW,345,4.0,10.0,50,0.00,,---,0.00,VWS V13.01,2013-03-25 12:29:00,
2013-03-25 06:32:00,22.5,6.7,30.24,NNE,18,6.0,7.0,50,0.00,,---,0.00,VWS V13.01,2013-03-25 12:32:00,
2013-03-25 06:34:00,22.5,6.7,30.24,North,10,4.0,7.0,50,0.00,,---,0.00,VWS V13.01,2013-03-25 12:34:00,
2013-03-25 06:36:00,22.5,6.7,30.24,North,11,3.0,7.0,50,0.00,,---,0.00,VWS V13.01,2013-03-25 12:36:00,
2013-03-25 06:37:00,22.4,6.6,30.24,NNW,347,6.0,7.0,50,0.00,,---,0.00,VWS V13.01,2013-03-25 12:37:00,
2013-03-25 06:38:00,22.5,6.7,30.24,NNW,344,3.0,7.0,50,0.00,,---,0.00,VWS V13.01,2013-03-25 12:38:00,
2013-03-25 06:42:00,22.4,6.6,30.25,NNW,341,3.0,7.0,50,0.00,,---,0.00,VWS V13.01,2013-03-25 12:42:00,
2013-03-25 06:44:00,22.3,6.5,30.25,NNW,340,5.0,7.0,50,0.00,,---,0.00,VWS V13.01,2013-03-25 12:44:00,
2013-03-25 06:45:00,22.3,6.5,30.25,NNW,340,4.0,5.0,50,0.00,,---,0.00,VWS V13.01,2013-03-25 12:45:00,
2013-03-25 06:48:00,22.2,6.4,30.25,NNW,340,3.0,9.0,50,0.00,,---,0.00,VWS V13.01,2013-03-25 12:48:00,
2013-03-25 06:49:00,22.2,6.4,30.25,NNW,340,4.0,9.0,50,0.00,,---,0.00,VWS V13.01,2013-03-25 12:49:00,
2013-03-25 06:50:00,22.2,6.4,30.25,NNW,340,5.0,9.0,50,0.00,,---,0.00,VWS V13.01,2013-03-25 12:50:00,
2013-03-25 06:53:00,22.0,6.2,30.25,NNW,334,6.0,11.0,50,0.00,,---,0.00,VWS V13.01,2013-03-25 12:53:00,
2013-03-25 06:54:00,22.0,6.2,30.25,NNW,333,4.0,11.0,50,0.00,,---,0.00,VWS V13.01,2013-03-25 12:54:00,
2013-03-25 06:58:00,21.9,6.1,30.25,NNW,331,3.0,11.0,50,0.00,,---,0.00,VWS V13.01,2013-03-25 12:58:00,
2013-03-25 06:59:00,21.8,6.0,30.25,NNW,332,5.0,11.0,50,0.00,,---,0.00,VWS V13.01,2013-03-25 12:59:00,
2013-03-25 07:00:00,21.8,6.0,30.27,NNW,334,5.0,9.0,50,0.00,,---,0.00,VWS V13.01,2013-03-25 13:00:00,
2013-03-25 07:03:00,21.7,6.4,30.27,NNW,330,4.0,9.0,51,0.00,,---,0.00,VWS V13.01,2013-03-25 13:03:00,
2013-03-25 07:05:00,21.7,6.4,30.27,NNW,330,3.0,9.0,51,0.00,,---,0.00,VWS V13.01,2013-03-25 13:05:00,
2013-03-25 07:10:00,21.6,6.3,30.27,NW,326,8.0,10.0,51,0.00,,---,0.00,VWS V13.01,2013-03-25 13:10:00,
2013-03-25 07:11:00,21.6,6.3,30.27,NNW,327,3.0,10.0,51,0.00,,---,0.00,VWS V13.01,2013-03-25 13:11:00,
2013-03-25 07:15:00,21.7,6.8,30.27,NNW,333,5.0,10.0,52,0.00,,---,0.00,VWS V13.01,2013-03-25 13:15:00,
2013-03-25 07:16:00,21.7,6.8,30.27,NNW,336,6.0,10.0,52,0.00,,---,0.00,VWS V13.01,2013-03-25 13:16:00,
2013-03-25 07:20:00,21.7,6.4,30.27,NW,317,9.0,13.0,51,0.00,,---,0.00,VWS V13.01,2013-03-25 13:20:00,
2013-03-25 07:21:00,21.7,6.8,30.27,NNW,342,12.0,15.0,52,0.00,,---,0.00,VWS V13.01,2013-03-25 13:21:00,
2013-03-25 07:22:00,21.7,6.8,30.27,NW,319,12.0,15.0,52,0.00,,---,0.00,VWS V13.01,2013-03-25 13:22:00,
2013-03-25 07:25:00,21.8,6.5,30.27,NNW,335,5.0,15.0,51,0.00,,---,0.00,VWS V13.01,2013-03-25 13:25:00,
2013-03-25 07:27:00,21.9,6.6,30.27,North,349,2.0,15.0,51,0.00,,---,0.00,VWS V13.01,2013-03-25 13:27:00,
2013-03-25 07:30:00,22.0,6.7,30.27,NNW,337,5.0,6.0,51,0.00,,---,0.00,VWS V13.01,2013-03-25 13:30:00,
2013-03-25 07:31:00,22.0,6.7,30.27,North,360,6.0,7.0,51,0.00,,---,0.00,VWS V13.01,2013-03-25 13:31:00,
2013-03-25 07:32:00,22.1,6.3,30.28,NNW,331,7.0,10.0,50,0.00,,---,0.00,VWS V13.01,2013-03-25 13:32:00,
2013-03-25 07:36:00,22.2,6.4,30.28,NNW,342,6.0,10.0,50,0.00,,---,0.00,VWS V13.01,2013-03-25 13:36:00,
2013-03-25 07:37:00,22.3,6.5,30.28,NNW,340,6.0,10.0,50,0.00,,---,0.00,VWS V13.01,2013-03-25 13:37:00,
2013-03-25 07:38:00,22.4,6.6,30.28,NNW,341,4.0,10.0,50,0.00,,---,0.00,VWS V13.01,2013-03-25 13:38:00,
2013-03-25 07:42:00,22.6,6.8,30.28,NNW,339,4.0,10.0,50,0.00,,---,0.00,VWS V13.01,2013-03-25 13:42:00,
2013-03-25 07:44:00,22.7,6.9,30.28,North,360,6.0,10.0,50,0.00,,---,0.00,VWS V13.01,2013-03-25 13:44:00,
2013-03-25 07:45:00,22.8,7.4,30.28,NNE,14,3.0,10.0,51,0.00,,---,0.00,VWS V13.01,2013-03-25 13:45:00,
2013-03-25 07:47:00,22.9,7.5,30.28,NNW,336,4.0,10.0,51,0.00,,---,0.00,VWS V13.01,2013-03-25 13:47:00,
2013-03-25 07:50:00,23.1,7.2,30.29,NNE,23,2.0,11.0,50,0.00,,---,0.00,VWS V13.01,2013-03-25 13:50:00,
2013-03-25 07:52:00,23.3,7.4,30.28,NNE,13,4.0,11.0,50,0.00,,---,0.00,VWS V13.01,2013-03-25 13:52:00,
2013-03-25 07:55:00,23.6,7.7,30.27,North,355,6.0,11.0,50,0.00,,---,0.00,VWS V13.01,2013-03-25 13:55:00,
2013-03-25 07:57:00,23.7,7.8,30.27,North,11,4.0,11.0,50,0.00,,---,0.00,VWS V13.01,2013-03-25 13:57:00,
2013-03-25 07:58:00,23.8,7.9,30.28,NNE,18,6.0,13.0,50,0.00,,---,0.00,VWS V13.01,2013-03-25 13:58:00,
2013-03-25 08:03:00,24.1,8.2,30.29,North,355,9.0,13.0,50,0.00,,---,0.00,VWS V13.01,2013-03-25 14:03:00,
2013-03-25 08:04:00,24.1,8.2,30.29,NNE,26,9.0,13.0,50,0.00,,---,0.00,VWS V13.01,2013-03-25 14:04:00,
2013-03-25 08:05:00,24.1,8.2,30.29,North,349,12.0,13.0,50,0.00,,---,0.00,VWS V13.01,2013-03-25 14:05:00,
2013-03-25 08:07:00,24.3,8.4,30.29,North,360,7.0,15.0,50,0.00,,---,0.00,VWS V13.01,2013-03-25 14:07:00,
2013-03-25 08:09:00,24.4,8.4,30.29,NNE,26,4.0,15.0,50,0.00,,---,0.00,VWS V13.01,2013-03-25 14:09:00,
2013-03-25 08:12:00,24.6,8.6,30.29,NNE,28,10.0,15.0,50,0.00,,---,0.00,VWS V13.01,2013-03-25 14:12:00,
2013-03-25 08:13:00,24.7,8.7,30.29,NNE,25,4.0,15.0,50,0.00,,---,0.00,VWS V13.01,2013-03-25 14:13:00,
2013-03-25 08:14:00,24.7,8.7,30.29,NE,34,8.0,15.0,50,0.00,,---,0.00,VWS V13.01,2013-03-25 14:14:00,
2013-03-25 08:17:00,24.9,8.9,30.30,ENE,57,10.0,15.0,50,0.00,,---,0.00,VWS V13.01,2013-03-25 14:17:00,
2013-03-25 08:19:00,25.1,9.1,30.30,NNE,28,8.0,15.0,50,0.00,,---,0.00,VWS V13.01,2013-03-25 14:19:00,
2013-03-25 08:20:00,25.1,8.6,30.30,NNW,346,8.0,15.0,49,0.00,,---,0.00,VWS V13.01,2013-03-25 14:20:00,
2013-03-25 08:26:00,25.4,8.9,30.29,North,360,4.0,15.0,49,0.00,,---,0.00,VWS V13.01,2013-03-25 14:26:00,
2013-03-25 08:27:00,25.5,9.0,30.29,NNE,32,12.0,15.0,49,0.00,,---,0.00,VWS V13.01,2013-03-25 14:27:00,
2013-03-25 08:28:00,25.5,9.0,30.29,NNE,30,11.0,15.0,49,0.00,,---,0.00,VWS V13.01,2013-03-25 14:28:00,
2013-03-25 08:31:00,25.7,8.7,30.29,NNE,24,9.0,13.0,48,0.00,,---,0.00,VWS V13.01,2013-03-25 14:31:00,
2013-03-25 08:33:00,25.9,8.9,30.29,NE,38,7.0,13.0,48,0.00,,---,0.00,VWS V13.01,2013-03-25 14:33:00,
2013-03-25 08:35:00,26.2,9.2,30.29,NNE,29,6.0,13.0,48,0.00,,---,0.00,VWS V13.01,2013-03-25 14:35:00,
2013-03-25 08:36:00,26.2,8.7,30.29,NE,36,10.0,16.0,47,0.00,,---,0.00,VWS V13.01,2013-03-25 14:36:00,
2013-03-25 08:38:00,26.4,8.9,30.30,NE,49,7.0,16.0,47,0.00,,---,0.00,VWS V13.01,2013-03-25 14:38:00,
2013-03-25 08:40:00,26.6,8.6,30.30,NNE,18,7.0,17.0,46,0.00,,---,0.00,VWS V13.01,2013-03-25 14:40:00,
2013-03-25 08:41:00,26.6,8.6,30.30,NNE,13,5.0,17.0,46,0.00,,---,0.00,VWS V13.01,2013-03-25 14:41:00,
2013-03-25 08:43:00,26.7,8.7,30.30,NNE,13,5.0,17.0,46,0.00,,---,0.00,VWS V13.01,2013-03-25 14:43:00,
2013-03-25 08:45:00,26.8,8.8,30.30,NNE,21,9.0,12.0,46,0.00,,---,0.00,VWS V13.01,2013-03-25 14:45:00,
2013-03-25 08:48:00,27.0,9.0,30.30,NE,38,12.0,12.0,46,0.00,,---,0.00,VWS V13.01,2013-03-25 14:48:00,
2013-03-25 08:49:00,27.0,8.5,30.30,NNE,25,3.0,13.0,45,0.00,,---,0.00,VWS V13.01,2013-03-25 14:49:00,
2013-03-25 08:55:00,27.4,8.9,30.30,NNE,29,6.0,13.0,45,0.00,,---,0.00,VWS V13.01,2013-03-25 14:55:00,
2013-03-25 08:56:00,27.5,9.0,30.29,North,350,3.0,13.0,45,0.00,,---,0.00,VWS V13.01,2013-03-25 14:56:00,
2013-03-25 08:57:00,27.5,9.0,30.29,North,355,4.0,13.0,45,0.00,,---,0.00,VWS V13.01,2013-03-25 14:57:00,
2013-03-25 08:59:00,27.6,8.6,30.30,NNE,22,5.0,13.0,44,0.00,,---,0.00,VWS V13.01,2013-03-25 14:59:00,
2013-03-25 09:00:00,27.6,8.6,30.30,NE,44,7.0,13.0,44,0.00,,---,0.00,VWS V13.01,2013-03-25 15:00:00,
2013-03-25 09:05:00,27.9,8.8,30.30,NNE,25,11.0,13.0,44,0.00,,---,0.00,VWS V13.01,2013-03-25 15:05:00,
2013-03-25 09:06:00,28.0,8.4,30.30,NE,46,4.0,13.0,43,0.00,,---,0.00,VWS V13.01,2013-03-25 15:06:00,
2013-03-25 09:07:00,28.2,8.6,30.30,NNE,18,4.0,13.0,43,0.00,,---,0.00,VWS V13.01,2013-03-25 15:07:00,
2013-03-25 09:12:00,29.0,8.8,30.30,NE,41,7.0,13.0,42,0.00,,---,0.00,VWS V13.01,2013-03-25 15:12:00,
2013-03-25 09:14:00,29.3,9.1,30.30,NNE,28,4.0,13.0,42,0.00,,---,0.00,VWS V13.01,2013-03-25 15:14:00,
2013-03-25 09:15:00,29.4,8.6,30.30,North,9,5.0,9.0,41,0.00,,---,0.00,VWS V13.01,2013-03-25 15:15:00,
2013-03-25 09:17:00,29.6,8.8,30.29,NNW,348,4.0,10.0,41,0.00,,---,0.00,VWS V13.01,2013-03-25 15:17:00,
2013-03-25 09:19:00,29.7,8.9,30.29,NNE,25,5.0,11.0,41,0.00,,---,0.00,VWS V13.01,2013-03-25 15:19:00,
2013-03-25 09:20:00,29.8,9.0,30.29,North,360,4.0,11.0,41,0.00,,---,0.00,VWS V13.01,2013-03-25 15:20:00,
2013-03-25 09:24:00,29.7,8.4,30.30,NE,47,10.0,11.0,40,0.00,,---,0.00,VWS V13.01,2013-03-25 15:24:00,
2013-03-25 09:25:00,29.8,8.4,30.29,NE,39,3.0,11.0,40,0.00,,---,0.00,VWS V13.01,2013-03-25 15:25:00,
2013-03-25 09:27:00,30.1,8.7,30.30,NNE,32,11.0,11.0,40,0.00,,---,0.00,VWS V13.01,2013-03-25 15:27:00,
2013-03-25 09:30:00,30.4,8.4,30.30,NE,44,6.0,10.0,39,0.00,,---,0.00,VWS V13.01,2013-03-25 15:30:00,
2013-03-25 09:33:00,30.6,8.6,30.29,NNE,24,6.0,10.0,39,0.00,,---,0.00,VWS V13.01,2013-03-25 15:33:00,
2013-03-25 09:34:00,30.7,8.7,30.29,NNE,25,11.0,11.0,39,0.00,,---,0.00,VWS V13.01,2013-03-25 15:34:00,
2013-03-25 09:37:00,30.8,8.8,30.30,NNE,30,11.0,11.0,39,0.00,,---,0.00,VWS V13.01,2013-03-25 15:37:00,
2013-03-25 09:39:00,30.9,8.3,30.30,NNE,33,10.0,14.0,38,0.00,,---,0.00,VWS V13.01,2013-03-25 15:39:00,
2013-03-25 09:40:00,30.9,8.3,30.30,ENE,61,11.0,14.0,38,0.00,,---,0.00,VWS V13.01,2013-03-25 15:40:00,
2013-03-25 09:44:00,30.5,8.5,30.30,NNE,28,7.0,14.0,39,0.00,,---,0.00,VWS V13.01,2013-03-25 15:44:00,
2013-03-25 09:47:00,30.9,8.9,30.30,NE,38,6.0,11.0,39,0.00,,---,0.00,VWS V13.01,2013-03-25 15:47:00,
2013-03-25 09:51:00,31.0,8.4,30.30,NE,39,7.0,11.0,38,0.00,,---,0.00,VWS V13.01,2013-03-25 15:51:00,
2013-03-25 09:52:00,31.1,8.5,30.30,NE,34,4.0,11.0,38,0.00,,---,0.00,VWS V13.01,2013-03-25 15:52:00,
2013-03-25 09:54:00,31.4,8.7,30.30,NE,40,4.0,11.0,38,0.00,,---,0.00,VWS V13.01,2013-03-25 15:54:00,
2013-03-25 09:57:00,31.8,8.5,30.28,ENE,60,6.0,11.0,37,0.00,,---,0.00,VWS V13.01,2013-03-25 15:57:00,
2013-03-25 09:58:00,31.9,8.6,30.28,NE,46,9.0,11.0,37,0.00,,---,0.00,VWS V13.01,2013-03-25 15:58:00,
2013-03-25 09:59:00,32.0,8.7,30.28,NNE,30,6.0,11.0,37,0.00,,---,0.00,VWS V13.01,2013-03-25 15:59:00,
2013-03-25 10:00:00,32.0,8.7,30.31,ENE,57,9.0,9.0,37,0.00,,---,0.00,VWS V13.01,2013-03-25 16:00:00,
2013-03-25 10:05:00,32.4,8.4,30.31,NE,52,5.0,11.0,36,0.00,,---,0.00,VWS V13.01,2013-03-25 16:05:00,
2013-03-25 10:09:00,32.8,8.8,30.30,NE,49,7.0,11.0,36,0.00,,---,0.00,VWS V13.01,2013-03-25 16:09:00,
2013-03-25 10:12:00,32.7,8.7,30.30,ENE,65,5.0,12.0,36,0.00,,---,0.00,VWS V13.01,2013-03-25 16:12:00,
2013-03-25 10:13:00,32.6,8.6,30.30,ENE,67,9.0,12.0,36,0.00,,---,0.00,VWS V13.01,2013-03-25 16:13:00,
2013-03-25 10:14:00,32.3,8.4,30.31,ENE,59,5.0,12.0,36,0.00,,---,0.00,VWS V13.01,2013-03-25 16:14:00,
2013-03-25 10:17:00,32.4,8.4,30.31,NE,40,3.0,10.0,36,0.00,,---,0.00,VWS V13.01,2013-03-25 16:17:00,
2013-03-25 10:18:00,32.6,8.6,30.30,NNE,19,6.0,10.0,36,0.00,,---,0.00,VWS V13.01,2013-03-25 16:18:00,
2013-03-25 10:21:00,33.0,8.4,30.30,NE,37,6.0,11.0,35,0.00,,---,0.00,VWS V13.01,2013-03-25 16:21:00,
2013-03-25 10:24:00,33.4,8.7,30.30,NNE,32,5.0,11.0,35,0.00,,---,0.00,VWS V13.01,2013-03-25 16:24:00,
2013-03-25 10:25:00,33.4,8.7,30.30,NE,42,4.0,11.0,35,0.00,,---,0.00,VWS V13.01,2013-03-25 16:25:00,
2013-03-25 10:26:00,33.5,8.8,30.30,North,10,7.0,11.0,35,0.00,,---,0.00,VWS V13.01,2013-03-25 16:26:00,
2013-03-25 10:29:00,34.1,9.3,30.30,North,360,4.0,11.0,35,0.00,,---,0.00,VWS V13.01,2013-03-25 16:29:00,
2013-03-25 10:30:00,34.2,9.4,30.30,North,9,4.0,4.0,35,0.00,,---,0.00,VWS V13.01,2013-03-25 16:30:00,
2013-03-25 10:32:00,34.4,8.9,30.30,NNE,32,3.0,9.0,34,0.00,,---,0.00,VWS V13.01,2013-03-25 16:32:00,
2013-03-25 10:35:00,34.8,9.3,30.29,NNE,30,5.0,9.0,34,0.00,,---,0.00,VWS V13.01,2013-03-25 16:35:00,
2013-03-25 10:36:00,35.0,8.8,30.29,NE,52,6.0,9.0,33,0.00,,---,0.00,VWS V13.01,2013-03-25 16:36:00,
2013-03-25 10:40:00,34.9,8.7,30.29,NE,43,3.0,10.0,33,0.00,,---,0.00,VWS V13.01,2013-03-25 16:40:00,
2013-03-25 10:43:00,34.6,8.5,30.29,ENE,72,9.0,11.0,33,0.00,,---,0.00,VWS V13.01,2013-03-25 16:43:00,
2013-03-25 10:47:00,34.3,8.9,30.30,ENE,60,6.0,7.0,34,0.00,,---,0.00,VWS V13.01,2013-03-25 16:47:00,
2013-03-25 10:48:00,34.4,8.9,30.30,NE,36,7.0,8.0,34,0.00,,---,0.00,VWS V13.01,2013-03-25 16:48:00,
2013-03-25 10:49:00,34.4,8.9,30.30,NNW,334,1.0,8.0,34,0.00,,---,0.00,VWS V13.01,2013-03-25 16:49:00,
2013-03-25 10:54:00,34.2,8.1,30.30,East,81,4.0,13.0,33,0.00,,---,0.00,VWS V13.01,2013-03-25 16:54:00,
2013-03-25 10:55:00,34.0,7.9,30.30,East,81,5.0,13.0,33,0.00,,---,0.00,VWS V13.01,2013-03-25 16:55:00,
2013-03-25 10:58:00,34.3,8.9,30.30,ENE,63,3.0,13.0,34,0.00,,---,0.00,VWS V13.01,2013-03-25 16:58:00,
2013-03-25 10:59:00,34.4,8.3,30.30,NNE,22,6.0,13.0,33,0.00,,---,0.00,VWS V13.01,2013-03-25 16:59:00,
2013-03-25 11:02:00,35.1,8.9,30.31,NE,34,4.0,7.0,33,0.00,,---,0.00,VWS V13.01,2013-03-25 17:02:00,
2013-03-25 11:04:00,35.4,8.5,30.31,NE,39,4.0,11.0,32,0.00,,---,0.00,VWS V13.01,2013-03-25 17:04:00,
2013-03-25 11:05:00,35.5,8.6,30.31,NE,37,6.0,11.0,32,0.00,,---,0.00,VWS V13.01,2013-03-25 17:05:00,
2013-03-25 11:07:00,35.8,8.8,30.31,NE,40,5.0,11.0,32,0.00,,---,0.00,VWS V13.01,2013-03-25 17:07:00,
2013-03-25 11:10:00,35.4,7.8,30.31,ENE,63,3.0,11.0,31,0.00,,---,0.00,VWS V13.01,2013-03-25 17:10:00,
2013-03-25 11:12:00,35.3,8.4,30.31,NE,55,14.0,14.0,32,0.00,,---,0.00,VWS V13.01,2013-03-25 17:12:00,
2013-03-25 11:14:00,35.2,8.3,30.31,ENE,59,8.0,14.0,32,0.00,,---,0.00,VWS V13.01,2013-03-25 17:14:00,
2013-03-25 11:17:00,34.9,8.1,30.31,East,101,3.0,9.0,32,0.00,,---,0.00,VWS V13.01,2013-03-25 17:17:00,
2013-03-25 11:19:00,35.2,8.3,30.31,ENE,64,12.0,12.0,32,0.00,,---,0.00,VWS V13.01,2013-03-25 17:19:00,
2013-03-25 11:20:00,35.4,8.5,30.30,NE,40,6.0,12.0,32,0.00,,---,0.00,VWS V13.01,2013-03-25 17:20:00,
2013-03-25 11:22:00,35.7,8.1,30.30,ENE,78,3.0,12.0,31,0.00,,---,0.00,VWS V13.01,2013-03-25 17:22:00,
2013-03-25 11:25:00,36.1,8.4,30.30,ENE,64,6.0,12.0,31,0.00,,---,0.00,VWS V13.01,2013-03-25 17:25:00,
2013-03-25 11:29:00,36.4,8.7,30.30,ENE,61,2.0,12.0,31,0.00,,---,0.00,VWS V13.01,2013-03-25 17:29:00,
2013-03-25 11:33:00,36.7,8.2,30.29,East,80,2.0,7.0,30,0.00,,---,0.00,VWS V13.01,2013-03-25 17:33:00,
2013-03-25 11:34:00,36.7,8.2,30.29,East,80,5.0,7.0,30,0.00,,---,0.00,VWS V13.01,2013-03-25 17:34:00,
2013-03-25 11:36:00,36.8,8.3,30.29,ENE,78,4.0,7.0,30,0.00,,---,0.00,VWS V13.01,2013-03-25 17:36:00,
2013-03-25 11:40:00,36.7,8.2,30.29,ENE,62,4.0,7.0,30,0.00,,---,0.00,VWS V13.01,2013-03-25 17:40:00,
2013-03-25 11:44:00,36.9,7.6,30.29,ENE,62,5.0,7.0,29,0.00,,---,0.00,VWS V13.01,2013-03-25 17:44:00,
2013-03-25 11:50:00,37.4,8.1,30.28,ENE,63,0.0,5.0,29,0.00,,---,0.00,VWS V13.01,2013-03-25 17:50:00,
2013-03-25 11:51:00,37.7,8.3,30.28,ENE,63,0.0,5.0,29,0.00,,---,0.00,VWS V13.01,2013-03-25 17:51:00,
2013-03-25 11:53:00,38.2,8.8,30.28,NE,53,6.0,10.0,29,0.00,,---,0.00,VWS V13.01,2013-03-25 17:53:00,
2013-03-25 11:56:00,38.0,7.8,30.28,NE,55,1.0,10.0,28,0.00,,---,0.00,VWS V13.01,2013-03-25 17:56:00,
2013-03-25 11:57:00,38.0,7.8,30.28,NE,55,5.0,10.0,28,0.00,,---,0.00,VWS V13.01,2013-03-25 17:57:00,
2013-03-25 11:58:00,38.0,7.8,30.28,ENE,66,4.0,10.0,28,0.00,,---,0.00,VWS V13.01,2013-03-25 17:58:00,
2013-03-25 12:00:00,37.8,7.6,30.27,ENE,65,1.0,3.0,28,0.00,,---,0.00,VWS V13.01,2013-03-25 18:00:00,
2013-03-25 12:02:00,37.8,8.4,30.27,ESE,114,4.0,5.0,29,0.00,,---,0.00,VWS V13.01,2013-03-25 18:02:00,
2013-03-25 12:05:00,37.9,7.7,30.27,East,90,1.0,6.0,28,0.00,,---,0.00,VWS V13.01,2013-03-25 18:05:00,
2013-03-25 12:07:00,37.8,7.6,30.27,East,90,0.0,6.0,28,0.00,,---,0.00,VWS V13.01,2013-03-25 18:07:00,
2013-03-25 12:10:00,37.9,7.7,30.27,South,176,0.0,6.0,28,0.00,,---,0.00,VWS V13.01,2013-03-25 18:10:00,
2013-03-25 12:11:00,38.0,7.8,30.26,South,177,0.0,6.0,28,0.00,,---,0.00,VWS V13.01,2013-03-25 18:11:00,
2013-03-25 12:12:00,38.3,8.1,30.26,SSE,149,4.0,6.0,28,0.00,,---,0.00,VWS V13.01,2013-03-25 18:12:00,
2013-03-25 12:15:00,38.8,8.5,30.26,East,95,3.0,3.0,28,0.00,,---,0.00,VWS V13.01,2013-03-25 18:15:00,
2013-03-25 12:17:00,39.1,8.8,30.26,ENE,67,10.0,10.0,28,0.00,,---,0.00,VWS V13.01,2013-03-25 18:17:00,
2013-03-25 12:18:00,39.3,8.1,30.26,NE,43,5.0,11.0,27,0.00,,---,0.00,VWS V13.01,2013-03-25 18:18:00,
2013-03-25 12:23:00,39.2,8.0,30.25,NE,41,4.0,11.0,27,0.00,,---,0.00,VWS V13.01,2013-03-25 18:23:00,
2013-03-25 12:25:00,39.4,8.2,30.25,ENE,71,3.0,11.0,27,0.00,,---,0.00,VWS V13.01,2013-03-25 18:25:00,
2013-03-25 12:29:00,39.1,7.9,30.25,ESE,113,5.0,11.0,27,0.00,,---,0.00,VWS V13.01,2013-03-25 18:29:00,
2013-03-25 12:31:00,39.0,7.9,30.25,ESE,113,3.0,6.0,27,0.00,,---,0.00,VWS V13.01,2013-03-25 18:31:00,
2013-03-25 12:32:00,38.9,7.8,30.25,ESE,113,1.0,6.0,27,0.00,,---,0.00,VWS V13.01,2013-03-25 18:32:00,
2013-03-25 12:35:00,39.5,8.3,30.24,ESE,123,0.0,6.0,27,0.00,,---,0.00,VWS V13.01,2013-03-25 18:35:00,
2013-03-25 12:36:00,39.8,8.6,30.24,ESE,123,0.0,6.0,27,0.00,,---,0.00,VWS V13.01,2013-03-25 18:36:00,
2013-03-25 12:37:00,40.1,8.8,30.23,ESE,123,0.0,6.0,27,0.00,,---,0.00,VWS V13.01,2013-03-25 18:37:00,
2013-03-25 12:38:00,40.4,9.1,30.23,ESE,123,0.0,6.0,27,0.00,,---,0.00,VWS V13.01,2013-03-25 18:38:00,
2013-03-25 12:40:00,41.1,8.8,30.23,ESE,123,0.0,6.0,26,0.00,,---,0.00,VWS V13.01,2013-03-25 18:40:00,
2013-03-25 12:43:00,41.5,9.2,30.21,NW,308,3.0,6.0,26,0.00,,---,0.00,VWS V13.01,2013-03-25 18:43:00,
2013-03-25 12:45:00,41.4,9.1,30.22,SSW,199,4.0,5.0,26,0.00,,---,0.00,VWS V13.01,2013-03-25 18:45:00,
2013-03-25 12:47:00,41.4,9.1,30.22,South,170,3.0,5.0,26,0.00,,---,0.00,VWS V13.01,2013-03-25 18:47:00,
2013-03-25 12:52:00,41.3,9.0,30.22,SE,142,3.0,7.0,26,0.00,,---,0.00,VWS V13.01,2013-03-25 18:52:00,
2013-03-25 12:53:00,41.2,8.9,30.22,SE,126,4.0,7.0,26,0.00,,---,0.00,VWS V13.01,2013-03-25 18:53:00,
2013-03-25 12:56:00,41.7,9.4,30.21,North,10,3.0,7.0,26,0.00,,---,0.00,VWS V13.01,2013-03-25 18:56:00,
2013-03-25 12:59:00,42.2,8.9,30.21,North,10,1.0,7.0,25,0.00,,---,0.00,VWS V13.01,2013-03-25 18:59:00,
2013-03-25 13:02:00,42.6,9.3,30.21,NE,51,4.0,7.0,25,0.00,,---,0.00,VWS V13.01,2013-03-25 19:02:00,
2013-03-25 13:04:00,42.6,9.3,30.21,NE,44,3.0,7.0,25,0.00,,---,0.00,VWS V13.01,2013-03-25 19:04:00,
2013-03-25 13:06:00,42.6,9.3,30.21,NE,39,4.0,7.0,25,0.00,,---,0.00,VWS V13.01,2013-03-25 19:06:00,
2013-03-25 13:07:00,42.5,9.2,30.21,NNW,341,2.0,7.0,25,0.00,,---,0.00,VWS V13.01,2013-03-25 19:07:00,
2013-03-25 13:12:00,43.0,9.6,30.20,NW,313,1.0,7.0,25,0.00,,---,0.00,VWS V13.01,2013-03-25 19:12:00,
2013-03-25 13:13:00,43.3,9.9,30.20,NW,318,2.0,7.0,25,0.00,,---,0.00,VWS V13.01,2013-03-25 19:13:00,
2013-03-25 13:17:00,43.2,8.9,30.20,SW,224,0.0,7.0,24,0.00,,---,0.00,VWS V13.01,2013-03-25 19:17:00,
2013-03-25 13:22:00,42.7,9.3,30.19,SW,224,7.0,11.0,25,0.00,,---,0.00,VWS V13.01,2013-03-25 19:22:00,
2013-03-25 13:23:00,42.8,9.4,30.19,SE,142,5.0,13.0,25,0.00,,---,0.00,VWS V13.01,2013-03-25 19:23:00,
2013-03-25 13:27:00,43.2,9.8,30.19,SSE,149,9.0,13.0,25,0.00,,---,0.00,VWS V13.01,2013-03-25 19:27:00,
2013-03-25 13:29:00,43.2,8.9,30.19,SE,128,6.0,13.0,24,0.00,,---,0.00,VWS V13.01,2013-03-25 19:29:00,
2013-03-25 13:33:00,43.1,9.7,30.19,ESE,105,4.0,8.0,25,0.00,,---,0.00,VWS V13.01,2013-03-25 19:33:00,
2013-03-25 13:34:00,43.1,9.7,30.19,ESE,117,2.0,8.0,25,0.00,,---,0.00,VWS V13.01,2013-03-25 19:34:00,
2013-03-25 13:37:00,43.5,10.0,30.17,SE,143,2.0,8.0,25,0.00,,---,0.00,VWS V13.01,2013-03-25 19:37:00,
2013-03-25 13:41:00,44.0,9.5,30.17,South,175,6.0,10.0,24,0.00,,---,0.00,VWS V13.01,2013-03-25 19:41:00,
2013-03-25 13:42:00,43.8,9.4,30.17,SSE,151,5.0,10.0,24,0.00,,---,0.00,VWS V13.01,2013-03-25 19:42:00,
2013-03-25 13:43:00,43.7,9.3,30.17,SSW,196,5.0,10.0,24,0.00,,---,0.00,VWS V13.01,2013-03-25 19:43:00,
2013-03-25 13:44:00,43.7,9.3,30.17,SSW,205,2.0,10.0,24,0.00,,---,0.00,VWS V13.01,2013-03-25 19:44:00,
2013-03-25 13:47:00,43.7,9.3,30.17,ESE,107,2.0,5.0,24,0.00,,---,0.00,VWS V13.01,2013-03-25 19:47:00,
2013-03-25 13:48:00,43.9,9.5,30.17,ESE,122,5.0,9.0,24,0.00,,---,0.00,VWS V13.01,2013-03-25 19:48:00,
2013-03-25 13:50:00,43.9,9.5,30.17,SE,131,1.0,9.0,24,0.00,,---,0.00,VWS V13.01,2013-03-25 19:50:00,
2013-03-25 13:52:00,44.2,9.7,30.17,SE,130,6.0,9.0,24,0.00,,---,0.00,VWS V13.01,2013-03-25 19:52:00,
2013-03-25 13:53:00,44.3,9.8,30.17,SE,126,5.0,9.0,24,0.00,,---,0.00,VWS V13.01,2013-03-25 19:53:00,
2013-03-25 13:55:00,44.2,9.7,30.16,ESE,109,9.0,9.0,24,0.00,,---,0.00,VWS V13.01,2013-03-25 19:55:00,
2013-03-25 13:57:00,43.7,9.3,30.16,SSE,147,2.0,10.0,24,0.00,,---,0.00,VWS V13.01,2013-03-25 19:57:00,
2013-03-25 13:59:00,43.8,9.4,30.16,SSE,147,2.0,10.0,24,0.00,,---,0.00,VWS V13.01,2013-03-25 19:59:00,
2013-03-25 14:03:00,44.6,10.1,30.19,ESE,113,6.0,9.0,24,0.00,,---,0.00,VWS V13.01,2013-03-25 20:03:00,
2013-03-25 14:04:00,44.7,9.2,30.18,ESE,113,6.0,9.0,23,0.00,,---,0.00,VWS V13.01,2013-03-25 20:04:00,
2013-03-25 14:07:00,45.1,9.5,30.18,SE,136,7.0,9.0,23,0.00,,---,0.00,VWS V13.01,2013-03-25 20:07:00,
2013-03-25 14:09:00,45.1,9.5,30.17,SE,131,6.0,11.0,23,0.00,,---,0.00,VWS V13.01,2013-03-25 20:09:00,
2013-03-25 14:12:00,45.2,9.6,30.17,SSE,152,3.0,15.0,23,0.00,,---,0.00,VWS V13.01,2013-03-25 20:12:00,
2013-03-25 14:13:00,45.4,9.8,30.17,SE,139,7.0,15.0,23,0.00,,---,0.00,VWS V13.01,2013-03-25 20:13:00,
2013-03-25 14:15:00,45.4,9.8,30.17,South,188,3.0,7.0,23,0.00,,---,0.00,VWS V13.01,2013-03-25 20:15:00,
2013-03-25 14:17:00,45.9,10.2,30.17,SSW,210,8.0,14.0,23,0.00,,---,0.00,VWS V13.01,2013-03-25 20:17:00,
2013-03-25 14:18:00,46.1,10.4,30.17,SSW,201,6.0,14.0,23,0.00,,---,0.00,VWS V13.01,2013-03-25 20:18:00,
2013-03-25 14:21:00,46.3,10.6,30.17,South,175,6.0,14.0,23,0.00,,---,0.00,VWS V13.01,2013-03-25 20:21:00,
2013-03-25 14:25:00,45.6,9.9,30.17,SSE,164,6.0,14.0,23,0.00,,---,0.00,VWS V13.01,2013-03-25 20:25:00,
2013-03-25 14:26:00,45.5,9.9,30.17,ESE,116,6.0,14.0,23,0.00,,---,0.00,VWS V13.01,2013-03-25 20:26:00,
2013-03-25 14:27:00,45.6,9.9,30.17,SE,138,2.0,14.0,23,0.00,,---,0.00,VWS V13.01,2013-03-25 20:27:00,
2013-03-25 14:29:00,46.0,10.3,30.17,SE,140,5.0,5.0,23,0.00,,---,0.00,VWS V13.01,2013-03-25 20:29:00,
2013-03-25 14:32:00,46.4,9.6,30.16,SW,225,10.0,13.0,22,0.00,,---,0.00,VWS V13.01,2013-03-25 20:32:00,
2013-03-25 14:33:00,46.5,9.7,30.16,SSW,198,8.0,13.0,22,0.00,,---,0.00,VWS V13.01,2013-03-25 20:33:00,
2013-03-25 14:37:00,47.6,10.6,30.15,South,169,5.0,13.0,22,0.00,,---,0.00,VWS V13.01,2013-03-25 20:37:00,
2013-03-25 14:39:00,47.9,10.9,30.15,SSE,152,6.0,15.0,22,0.00,,---,0.00,VWS V13.01,2013-03-25 20:39:00,
2013-03-25 14:40:00,47.9,10.9,30.15,SSW,206,13.0,15.0,22,0.00,,---,0.00,VWS V13.01,2013-03-25 20:40:00,
2013-03-25 14:44:00,47.6,10.6,30.15,SSE,168,5.0,15.0,22,0.00,,---,0.00,VWS V13.01,2013-03-25 20:44:00,
2013-03-25 14:46:00,47.6,10.6,30.15,SW,220,6.0,11.0,22,0.00,,---,0.00,VWS V13.01,2013-03-25 20:46:00,
2013-03-25 14:49:00,47.4,10.5,30.15,SSE,150,10.0,13.0,22,0.00,,---,0.00,VWS V13.01,2013-03-25 20:49:00,
2013-03-25 14:50:00,47.4,10.5,30.14,SE,146,6.0,13.0,22,0.00,,---,0.00,VWS V13.01,2013-03-25 20:50:00,
2013-03-25 14:53:00,48.0,11.0,30.15,South,180,10.0,13.0,22,0.00,,---,0.00,VWS V13.01,2013-03-25 20:53:00,
2013-03-25 14:54:00,48.1,10.0,30.15,SSW,202,7.0,13.0,21,0.00,,---,0.00,VWS V13.01,2013-03-25 20:54:00,
2013-03-25 14:57:00,48.2,10.1,30.14,SSE,165,6.0,14.0,21,0.00,,---,0.00,VWS V13.01,2013-03-25 20:57:00,
2013-03-25 14:58:00,48.5,10.4,30.14,SW,230,11.0,14.0,21,0.00,,---,0.00,VWS V13.01,2013-03-25 20:58:00,
2013-03-25 14:59:00,48.7,10.5,30.14,SSW,199,12.0,14.0,21,0.00,,---,0.00,VWS V13.01,2013-03-25 20:59:00,
2013-03-25 15:01:00,48.8,10.6,30.15,SSW,195,5.0,13.0,21,0.00,,---,0.00,VWS V13.01,2013-03-25 21:01:00,
2013-03-25 15:04:00,48.8,10.6,30.14,SSE,149,5.0,13.0,21,0.00,,---,0.00,VWS V13.01,2013-03-25 21:04:00,
2013-03-25 15:07:00,48.8,10.6,30.14,SSW,195,9.0,14.0,21,0.00,,---,0.00,VWS V13.01,2013-03-25 21:07:00,
2013-03-25 15:09:00,48.8,10.6,30.14,SSE,147,4.0,14.0,21,0.00,,---,0.00,VWS V13.01,2013-03-25 21:09:00,
2013-03-25 15:10:00,48.9,10.7,30.14,SSE,161,3.0,14.0,21,0.00,,---,0.00,VWS V13.01,2013-03-25 21:10:00,
2013-03-25 15:12:00,48.9,10.7,30.14,SE,145,9.0,15.0,21,0.00,,---,0.00,VWS V13.01,2013-03-25 21:12:00,
2013-03-25 15:15:00,48.9,10.7,30.14,SSE,160,3.0,5.0,21,0.00,,---,0.00,VWS V13.01,2013-03-25 21:15:00,
2013-03-25 15:17:00,49.2,10.9,30.14,SE,146,10.0,13.0,21,0.00,,---,0.00,VWS V13.01,2013-03-25 21:17:00,
2013-03-25 15:19:00,49.4,11.1,30.14,SSE,168,3.0,16.0,21,0.00,,---,0.00,VWS V13.01,2013-03-25 21:19:00,
2013-03-25 15:20:00,49.5,11.2,30.14,SE,140,7.0,16.0,21,0.00,,---,0.00,VWS V13.01,2013-03-25 21:20:00,
2013-03-25 15:21:00,49.5,11.2,30.13,SSE,153,10.0,18.0,21,0.00,,---,0.00,VWS V13.01,2013-03-25 21:21:00,
2013-03-25 15:25:00,49.6,11.3,30.12,South,175,8.0,18.0,21,0.00,,---,0.00,VWS V13.01,2013-03-25 21:25:00,
2013-03-25 15:29:00,49.2,10.9,30.13,SSW,194,16.0,18.0,21,0.00,,---,0.00,VWS V13.01,2013-03-25 21:29:00,
2013-03-25 15:30:00,49.1,10.9,30.13,South,171,13.0,16.0,21,0.00,,---,0.00,VWS V13.01,2013-03-25 21:30:00,
2013-03-25 15:33:00,49.0,10.8,30.13,SSW,192,10.0,16.0,21,0.00,,---,0.00,VWS V13.01,2013-03-25 21:33:00,
2013-03-25 15:35:00,48.8,10.6,30.13,SSE,163,5.0,16.0,21,0.00,,---,0.00,VWS V13.01,2013-03-25 21:35:00,
2013-03-25 15:38:00,49.1,10.9,30.13,South,181,3.0,16.0,21,0.00,,---,0.00,VWS V13.01,2013-03-25 21:38:00,
2013-03-25 15:40:00,49.4,11.1,30.13,SE,132,11.0,18.0,21,0.00,,---,0.00,VWS V13.01,2013-03-25 21:40:00,
2013-03-25 15:42:00,49.8,11.4,30.12,SE,126,14.0,18.0,21,0.00,,---,0.00,VWS V13.01,2013-03-25 21:42:00,
2013-03-25 15:43:00,50.0,10.5,30.12,South,183,2.0,18.0,20,0.00,,---,0.00,VWS V13.01,2013-03-25 21:43:00,
2013-03-25 15:47:00,50.1,10.6,30.12,SSW,205,4.0,14.0,20,0.00,,---,0.00,VWS V13.01,2013-03-25 21:47:00,
2013-03-25 15:48:00,50.0,10.5,30.11,South,188,6.0,14.0,20,0.00,,---,0.00,VWS V13.01,2013-03-25 21:48:00,
2013-03-25 15:49:00,50.3,10.8,30.11,South,188,8.0,14.0,20,0.00,,---,0.00,VWS V13.01,2013-03-25 21:49:00,
2013-03-25 15:50:00,50.4,10.9,30.11,SSW,213,3.0,14.0,20,0.00,,---,0.00,VWS V13.01,2013-03-25 21:50:00,
2013-03-25 15:52:00,50.7,11.1,30.11,SW,234,4.0,14.0,20,0.00,,---,0.00,VWS V13.01,2013-03-25 21:52:00,
2013-03-25 15:55:00,51.2,11.5,30.12,WSW,254,7.0,14.0,20,0.00,,---,0.00,VWS V13.01,2013-03-25 21:55:00,
2013-03-25 15:56:00,51.2,11.5,30.11,WSW,252,6.0,14.0,20,0.00,,---,0.00,VWS V13.01,2013-03-25 21:56:00,
2013-03-25 15:58:00,51.3,11.6,30.11,West,261,5.0,14.0,20,0.00,,---,0.00,VWS V13.01,2013-03-25 21:58:00,
2013-03-25 16:01:00,51.4,11.7,30.12,West,274,1.0,7.0,20,0.00,,---,0.00,VWS V13.01,2013-03-25 22:01:00,
2013-03-25 16:02:00,51.5,11.8,30.12,WSW,254,9.0,9.0,20,0.00,,---,0.00,VWS V13.01,2013-03-25 22:02:00,
2013-03-25 16:07:00,51.9,12.1,30.11,WSW,245,4.0,11.0,20,0.00,,---,0.00,VWS V13.01,2013-03-25 22:07:00,
2013-03-25 16:08:00,51.9,12.1,30.11,SSW,210,5.0,11.0,20,0.00,,---,0.00,VWS V13.01,2013-03-25 22:08:00,
2013-03-25 16:09:00,52.0,12.2,30.11,SW,229,6.0,11.0,20,0.00,,---,0.00,VWS V13.01,2013-03-25 22:09:00,
2013-03-25 16:13:00,52.0,12.2,30.11,NW,306,5.0,15.0,20,0.00,,---,0.00,VWS V13.01,2013-03-25 22:13:00,
2013-03-25 16:14:00,51.9,12.1,30.11,WNW,291,9.0,15.0,20,0.00,,---,0.00,VWS V13.01,2013-03-25 22:14:00,
2013-03-25 16:15:00,51.8,12.0,30.10,North,350,4.0,9.0,20,0.00,,---,0.00,VWS V13.01,2013-03-25 22:15:00,
2013-03-25 16:17:00,51.7,11.9,30.11,NW,311,3.0,9.0,20,0.00,,---,0.00,VWS V13.01,2013-03-25 22:17:00,
2013-03-25 16:21:00,51.8,12.0,30.11,West,261,7.0,12.0,20,0.00,,---,0.00,VWS V13.01,2013-03-25 22:21:00,
2013-03-25 16:23:00,52.1,12.3,30.10,WSW,246,1.0,12.0,20,0.00,,---,0.00,VWS V13.01,2013-03-25 22:23:00,
2013-03-25 16:24:00,52.3,12.4,30.10,West,281,7.0,12.0,20,0.00,,---,0.00,VWS V13.01,2013-03-25 22:24:00,
2013-03-25 16:27:00,53.0,13.0,30.09,WSW,238,5.0,14.0,20,0.00,,---,0.00,VWS V13.01,2013-03-25 22:27:00,
2013-03-25 16:28:00,53.2,13.2,30.09,West,281,7.0,14.0,20,0.00,,---,0.00,VWS V13.01,2013-03-25 22:28:00,
2013-03-25 16:29:00,53.2,13.2,30.09,NW,305,5.0,14.0,20,0.00,,---,0.00,VWS V13.01,2013-03-25 22:29:00,
2013-03-25 16:32:00,53.3,13.3,30.09,NW,318,15.0,15.0,20,0.00,,---,0.00,VWS V13.01,2013-03-25 22:32:00,
2013-03-25 16:33:00,53.2,13.2,30.09,West,279,6.0,16.0,20,0.00,,---,0.00,VWS V13.01,2013-03-25 22:33:00,
2013-03-25 16:35:00,53.3,13.3,30.09,West,268,13.0,16.0,20,0.00,,---,0.00,VWS V13.01,2013-03-25 22:35:00,
2013-03-25 16:37:00,53.4,13.4,30.09,West,263,3.0,16.0,20,0.00,,---,0.00,VWS V13.01,2013-03-25 22:37:00,
2013-03-25 16:38:00,53.5,13.4,30.09,West,263,5.0,16.0,20,0.00,,---,0.00,VWS V13.01,2013-03-25 22:38:00,
2013-03-25 16:43:00,53.7,13.6,30.09,NW,306,12.0,27.0,20,0.00,,---,0.00,VWS V13.01,2013-03-25 22:43:00,
2013-03-25 16:44:00,53.8,13.7,30.08,WSW,257,9.0,27.0,20,0.00,,---,0.00,VWS V13.01,2013-03-25 22:44:00,
2013-03-25 16:48:00,54.5,14.3,30.09,West,273,17.0,18.0,20,0.00,,---,0.00,VWS V13.01,2013-03-25 22:48:00,
2013-03-25 16:49:00,54.5,14.3,30.07,WNW,303,13.0,25.0,20,0.00,,---,0.00,VWS V13.01,2013-03-25 22:49:00,
2013-03-25 16:50:00,54.4,14.2,30.09,NNW,339,11.0,25.0,20,0.00,,---,0.00,VWS V13.01,2013-03-25 22:50:00,
2013-03-25 16:52:00,54.1,13.9,30.09,NW,306,14.0,25.0,20,0.00,,---,0.00,VWS V13.01,2013-03-25 22:52:00,
2013-03-25 16:55:00,53.7,13.6,30.09,West,279,14.0,25.0,20,0.00,,---,0.00,VWS V13.01,2013-03-25 22:55:00,
2013-03-25 16:57:00,53.6,13.5,30.09,NW,306,19.0,25.0,20,0.00,,---,0.00,VWS V13.01,2013-03-25 22:57:00,
2013-03-25 16:59:00,53.5,13.4,30.09,WNW,292,16.0,28.0,20,0.00,,---,0.00,VWS V13.01,2013-03-25 22:59:00,
2013-03-25 17:02:00,53.5,13.4,30.10,WNW,296,15.0,21.0,20,0.00,,---,0.00,VWS V13.01,2013-03-25 23:02:00,
2013-03-25 17:03:00,53.6,13.5,30.10,WNW,283,16.0,21.0,20,0.00,,---,0.00,VWS V13.01,2013-03-25 23:03:00,
2013-03-25 17:04:00,53.7,13.6,30.10,West,269,15.0,22.0,20,0.00,,---,0.00,VWS V13.01,2013-03-25 23:04:00,
2013-03-25 17:05:00,53.7,13.6,30.10,WNW,289,20.0,22.0,20,0.00,,---,0.00,VWS V13.01,2013-03-25 23:05:00,
2013-03-25 17:08:00,53.5,13.4,30.10,NW,319,5.0,28.0,20,0.00,,---,0.00,VWS V13.01,2013-03-25 23:08:00,
2013-03-25 17:10:00,53.5,13.4,30.10,WNW,303,13.0,28.0,20,0.00,,---,0.00,VWS V13.01,2013-03-25 23:10:00,
2013-03-25 17:13:00,53.5,13.4,30.10,NNW,343,11.0,28.0,20,0.00,,---,0.00,VWS V13.01,2013-03-25 23:13:00,
2013-03-25 17:14:00,53.5,13.4,30.10,NW,313,7.0,28.0,20,0.00,,---,0.00,VWS V13.01,2013-03-25 23:14:00,
2013-03-25 17:16:00,53.6,13.5,30.10,WNW,296,12.0,16.0,20,0.00,,---,0.00,VWS V13.01,2013-03-25 23:16:00,
2013-03-25 17:18:00,53.8,13.7,30.10,West,281,11.0,16.0,20,0.00,,---,0.00,VWS V13.01,2013-03-25 23:18:00,
2013-03-25 17:19:00,53.9,13.8,30.10,NW,310,7.0,16.0,20,0.00,,---,0.00,VWS V13.01,2013-03-25 23:19:00,
2013-03-25 17:23:00,54.0,13.9,30.10,WNW,293,14.0,23.0,20,0.00,,---,0.00,VWS V13.01,2013-03-25 23:23:00,
2013-03-25 17:25:00,53.7,13.6,30.10,WNW,296,9.0,23.0,20,0.00,,---,0.00,VWS V13.01,2013-03-25 23:25:00,
2013-03-25 17:26:00,53.7,13.6,30.10,NNW,327,10.0,23.0,20,0.00,,---,0.00,VWS V13.01,2013-03-25 23:26:00,
2013-03-25 17:27:00,53.7,13.6,30.10,NW,318,11.0,23.0,20,0.00,,---,0.00,VWS V13.01,2013-03-25 23:27:00,
2013-03-25 17:28:00,53.7,13.6,30.10,WNW,292,16.0,27.0,20,0.00,,---,0.00,VWS V13.01,2013-03-25 23:28:00,
2013-03-25 17:32:00,53.6,13.5,30.10,NW,309,10.0,22.0,20,0.00,,---,0.00,VWS V13.01,2013-03-25 23:32:00,
2013-03-25 17:34:00,53.8,13.7,30.10,NW,309,12.0,22.0,20,0.00,,---,0.00,VWS V13.01,2013-03-25 23:34:00,
2013-03-25 17:35:00,53.9,13.8,30.10,WNW,299,17.0,23.0,20,0.00,,---,0.00,VWS V13.01,2013-03-25 23:35:00,
2013-03-25 17:39:00,53.7,13.6,30.10,NW,313,7.0,23.0,20,0.00,,---,0.00,VWS V13.01,2013-03-25 23:39:00,
2013-03-25 17:40:00,53.7,13.6,30.10,WNW,296,12.0,23.0,20,0.00,,---,0.00,VWS V13.01,2013-03-25 23:40:00,
2013-03-25 17:41:00,53.6,13.5,30.10,North,355,13.0,23.0,20,0.00,,---,0.00,VWS V13.01,2013-03-25 23:41:00,
2013-03-25 17:44:00,53.6,13.5,30.10,NW,313,12.0,23.0,20,0.00,,---,0.00,VWS V13.01,2013-03-25 23:44:00,
2013-03-25 17:45:00,53.6,13.5,30.10,NNW,344,13.0,16.0,20,0.00,,---,0.00,VWS V13.01,2013-03-25 23:45:00,
2013-03-25 17:46:00,53.5,13.4,30.10,NW,304,14.0,20.0,20,0.00,,---,0.00,VWS V13.01,2013-03-25 23:46:00,
2013-03-25 17:47:00,53.4,13.4,30.10,WNW,292,14.0,20.0,20,0.00,,---,0.00,VWS V13.01,2013-03-25 23:47:00,
2013-03-25 17:52:00,53.4,13.4,30.11,WNW,300,18.0,24.0,20,0.00,,---,0.00,VWS V13.01,2013-03-25 23:52:00,
2013-03-25 17:54:00,53.3,13.3,30.10,NW,306,15.0,24.0,20,0.00,,---,0.00,VWS V13.01,2013-03-25 23:54:00,
2013-03-25 17:55:00,53.2,13.2,30.10,NNW,331,5.0,24.0,20,0.00,,---,0.00,VWS V13.01,2013-03-25 23:55:00,
2013-03-25 17:57:00,53.1,13.1,30.10,NNW,331,12.0,24.0,20,0.00,,---,0.00,VWS V13.01,2013-03-25 23:57:00,
2013-03-25 17:58:00,53.1,13.1,30.10,WNW,287,17.0,24.0,20,0.00,,---,0.00,VWS V13.01,2013-03-25 23:58:00,
2013-03-25 17:59:00,53.1,13.1,30.10,NW,304,9.0,24.0,20,0.00,,---,0.00,VWS V13.01,2013-03-25 23:59:00,
2013-03-25 18:03:00,53.1,13.1,30.11,NW,323,8.0,22.0,20,0.00,,---,0.00,VWS V13.01,2013-03-26 00:03:00,
2013-03-25 18:05:00,53.1,13.1,30.12,NW,318,12.0,22.0,20,0.00,,---,0.00,VWS V13.01,2013-03-26 00:05:00,
2013-03-25 18:10:00,53.2,13.2,30.11,WNW,301,17.0,22.0,20,0.00,,---,0.00,VWS V13.01,2013-03-26 00:10:00,
2013-03-25 18:13:00,53.2,13.2,30.12,WNW,300,10.0,22.0,20,0.00,,---,0.00,VWS V13.01,2013-03-26 00:13:00,
2013-03-25 18:14:00,53.2,13.2,30.12,NW,322,14.0,22.0,20,0.00,,---,0.00,VWS V13.01,2013-03-26 00:14:00,
2013-03-25 18:16:00,53.0,13.0,30.12,North,350,13.0,19.0,20,0.00,,---,0.00,VWS V13.01,2013-03-26 00:16:00,
2013-03-25 18:18:00,52.9,12.9,30.12,WNW,294,13.0,22.0,20,0.00,,---,0.00,VWS V13.01,2013-03-26 00:18:00,
2013-03-25 18:20:00,52.8,12.9,30.12,NNW,336,11.0,24.0,20,0.00,,---,0.00,VWS V13.01,2013-03-26 00:20:00,
2013-03-25 18:23:00,52.7,13.9,30.12,WNW,295,10.0,24.0,21,0.00,,---,0.00,VWS V13.01,2013-03-26 00:23:00,
2013-03-25 18:24:00,52.7,13.9,30.12,NW,322,12.0,24.0,21,0.00,,---,0.00,VWS V13.01,2013-03-26 00:24:00,
2013-03-25 18:28:00,52.7,13.9,30.12,NW,316,15.0,24.0,21,0.00,,---,0.00,VWS V13.01,2013-03-26 00:28:00,
2013-03-25 18:29:00,52.7,13.9,30.12,NW,310,7.0,24.0,21,0.00,,---,0.00,VWS V13.01,2013-03-26 00:29:00,
2013-03-25 18:33:00,52.6,13.8,30.12,NW,315,10.0,19.0,21,0.00,,---,0.00,VWS V13.01,2013-03-26 00:33:00,
2013-03-25 18:35:00,52.6,13.8,30.12,NW,309,11.0,19.0,21,0.00,,---,0.00,VWS V13.01,2013-03-26 00:35:00,
2013-03-25 18:37:00,52.6,13.8,30.12,NNW,338,8.0,19.0,21,0.00,,---,0.00,VWS V13.01,2013-03-26 00:37:00,
2013-03-25 18:39:00,52.6,13.8,30.12,NNW,330,11.0,19.0,21,0.00,,---,0.00,VWS V13.01,2013-03-26 00:39:00,
2013-03-25 18:41:00,52.5,13.7,30.12,NW,317,6.0,19.0,21,0.00,,---,0.00,VWS V13.01,2013-03-26 00:41:00,
2013-03-25 18:42:00,52.5,13.7,30.12,NNW,327,16.0,20.0,21,0.00,,---,0.00,VWS V13.01,2013-03-26 00:42:00,
2013-03-25 18:43:00,52.4,13.6,30.12,WNW,302,14.0,20.0,21,0.00,,---,0.00,VWS V13.01,2013-03-26 00:43:00,
2013-03-25 18:44:00,52.4,13.6,30.12,WNW,290,7.0,20.0,21,0.00,,---,0.00,VWS V13.01,2013-03-26 00:44:00,
2013-03-25 18:48:00,52.2,13.5,30.12,NW,326,16.0,18.0,21,0.00,,---,0.00,VWS V13.01,2013-03-26 00:48:00,
2013-03-25 18:49:00,52.2,13.5,30.12,NW,319,10.0,18.0,21,0.00,,---,0.00,VWS V13.01,2013-03-26 00:49:00,
2013-03-25 18:50:00,52.1,13.4,30.12,NW,319,6.0,18.0,21,0.00,,---,0.00,VWS V13.01,2013-03-26 00:50:00,
2013-03-25 18:55:00,51.9,13.2,30.11,NNW,328,20.0,20.0,21,0.00,,---,0.00,VWS V13.01,2013-03-26 00:55:00,
2013-03-25 18:57:00,51.8,13.1,30.11,NW,315,10.0,20.0,21,0.00,,---,0.00,VWS V13.01,2013-03-26 00:57:00,
2013-03-25 19:01:00,51.5,12.9,30.10,NNW,338,13.0,15.0,21,0.00,,---,0.00,VWS V13.01,2013-03-26 01:01:00,
2013-03-25 19:02:00,51.4,12.8,30.11,NNW,339,10.0,20.0,21,0.00,,---,0.00,VWS V13.01,2013-03-26 01:02:00,
2013-03-25 19:03:00,51.4,12.8,30.12,NNW,328,6.0,20.0,21,0.00,,---,0.00,VWS V13.01,2013-03-26 01:03:00,
2013-03-25 19:06:00,51.2,13.7,30.12,North,350,6.0,20.0,22,0.00,,---,0.00,VWS V13.01,2013-03-26 01:06:00,
2013-03-25 19:07:00,51.2,13.7,30.12,NNW,338,13.0,20.0,22,0.00,,---,0.00,VWS V13.01,2013-03-26 01:07:00,
2013-03-25 19:09:00,51.1,13.6,30.11,NNW,341,4.0,20.0,22,0.00,,---,0.00,VWS V13.01,2013-03-26 01:09:00,
2013-03-25 19:10:00,51.0,13.5,30.12,North,10,9.0,20.0,22,0.00,,---,0.00,VWS V13.01,2013-03-26 01:10:00,
2013-03-25 19:12:00,51.0,13.5,30.12,NW,321,7.0,20.0,22,0.00,,---,0.00,VWS V13.01,2013-03-26 01:12:00,
2013-03-25 19:16:00,50.8,13.3,30.12,NNW,333,4.0,11.0,22,0.00,,---,0.00,VWS V13.01,2013-03-26 01:16:00,
2013-03-25 19:19:00,50.6,13.2,30.12,NNW,338,7.0,13.0,22,0.00,,---,0.00,VWS V13.01,2013-03-26 01:19:00,
2013-03-25 19:20:00,50.6,13.2,30.12,NNW,338,11.0,14.0,22,0.00,,---,0.00,VWS V13.01,2013-03-26 01:20:00,
2013-03-25 19:24:00,50.5,13.1,30.12,NNW,339,5.0,14.0,22,0.00,,---,0.00,VWS V13.01,2013-03-26 01:24:00,
2013-03-25 19:25:00,50.4,13.0,30.12,NNW,335,13.0,15.0,22,0.00,,---,0.00,VWS V13.01,2013-03-26 01:25:00,
2013-03-25 19:28:00,50.3,12.9,30.12,NNW,337,3.0,15.0,22,0.00,,---,0.00,VWS V13.01,2013-03-26 01:28:00,
2013-03-25 19:29:00,50.2,12.8,30.12,NNW,334,7.0,15.0,22,0.00,,---,0.00,VWS V13.01,2013-03-26 01:29:00,
2013-03-25 19:30:00,50.2,12.8,30.12,North,355,10.0,11.0,22,0.00,,---,0.00,VWS V13.01,2013-03-26 01:30:00,
2013-03-25 19:33:00,50.0,12.7,30.13,NNW,338,4.0,12.0,22,0.00,,---,0.00,VWS V13.01,2013-03-26 01:33:00,
2013-03-25 19:35:00,49.9,12.6,30.13,NNW,335,3.0,12.0,22,0.00,,---,0.00,VWS V13.01,2013-03-26 01:35:00,
2013-03-25 19:37:00,49.7,12.4,30.13,NNW,333,5.0,12.0,22,0.00,,---,0.00,VWS V13.01,2013-03-26 01:37:00,
2013-03-25 19:38:00,49.7,12.4,30.13,NW,322,3.0,12.0,22,0.00,,---,0.00,VWS V13.01,2013-03-26 01:38:00,
2013-03-25 19:42:00,49.6,12.3,30.13,NW,325,2.0,12.0,22,0.00,,---,0.00,VWS V13.01,2013-03-26 01:42:00,
2013-03-25 19:44:00,49.4,13.2,30.14,NW,325,4.0,12.0,23,0.00,,---,0.00,VWS V13.01,2013-03-26 01:44:00,
2013-03-25 19:46:00,49.4,13.2,30.15,NW,325,2.0,4.0,23,0.00,,---,0.00,VWS V13.01,2013-03-26 01:46:00,
2013-03-25 19:47:00,49.3,13.1,30.15,NW,325,3.0,6.0,23,0.00,,---,0.00,VWS V13.01,2013-03-26 01:47:00,
2013-03-25 19:49:00,49.2,13.0,30.15,NW,325,2.0,6.0,23,0.00,,---,0.00,VWS V13.01,2013-03-26 01:49:00,
2013-03-25 19:51:00,49.2,13.0,30.15,NW,325,4.0,6.0,23,0.00,,---,0.00,VWS V13.01,2013-03-26 01:51:00,
2013-03-25 19:52:00,49.2,13.0,30.15,NW,325,0.0,6.0,23,0.00,,---,0.00,VWS V13.01,2013-03-26 01:52:00,
2013-03-25 19:54:00,49.1,12.9,30.16,NW,325,2.0,6.0,23,0.00,,---,0.00,VWS V13.01,2013-03-26 01:54:00,
2013-03-25 19:57:00,49.0,12.8,30.16,NW,325,1.0,6.0,23,0.00,,---,0.00,VWS V13.01,2013-03-26 01:57:00,
2013-03-25 19:58:00,49.0,12.8,30.16,NW,325,0.0,6.0,23,0.00,,---,0.00,VWS V13.01,2013-03-26 01:58:00,
2013-03-25 19:59:00,49.0,12.8,30.16,NW,325,0.0,6.0,23,0.00,,---,0.00,VWS V13.01,2013-03-26 01:59:00,
2013-03-25 20:03:00,48.8,12.7,30.14,NW,325,0.0,0.0,23,0.00,,---,0.00,VWS V13.01,2013-03-26 02:03:00,
2013-03-25 20:05:00,48.7,12.6,30.14,NW,325,1.0,2.0,23,0.00,,---,0.00,VWS V13.01,2013-03-26 02:05:00,
2013-03-25 20:08:00,48.6,12.5,30.14,NW,325,0.0,2.0,23,0.00,,---,0.00,VWS V13.01,2013-03-26 02:08:00,
2013-03-25 20:11:00,48.5,12.4,30.14,NW,325,0.0,2.0,23,0.00,,---,0.00,VWS V13.01,2013-03-26 02:11:00,
2013-03-25 20:13:00,48.5,13.4,30.15,NW,325,4.0,4.0,24,0.00,,---,0.00,VWS V13.01,2013-03-26 02:13:00,
2013-03-25 20:17:00,48.5,13.4,30.15,NW,325,3.0,4.0,24,0.00,,---,0.00,VWS V13.01,2013-03-26 02:17:00,
2013-03-25 20:22:00,48.5,13.4,30.15,NW,325,2.0,4.0,24,0.00,,---,0.00,VWS V13.01,2013-03-26 02:22:00,
2013-03-25 20:23:00,48.5,13.4,30.15,NW,325,3.0,4.0,24,0.00,,---,0.00,VWS V13.01,2013-03-26 02:23:00,
2013-03-25 20:25:00,48.5,13.4,30.15,NW,325,3.0,4.0,24,0.00,,---,0.00,VWS V13.01,2013-03-26 02:25:00,
2013-03-25 20:28:00,48.5,12.4,30.15,NW,325,2.0,6.0,23,0.00,,---,0.00,VWS V13.01,2013-03-26 02:28:00,
2013-03-25 20:29:00,48.5,12.4,30.15,NW,325,4.0,6.0,23,0.00,,---,0.00,VWS V13.01,2013-03-26 02:29:00,
2013-03-25 20:31:00,48.5,13.4,30.15,NW,325,2.0,4.0,24,0.00,,---,0.00,VWS V13.01,2013-03-26 02:31:00,
2013-03-25 20:33:00,48.5,12.4,30.16,NW,325,0.0,4.0,23,0.00,,---,0.00,VWS V13.01,2013-03-26 02:33:00,
2013-03-25 20:35:00,48.4,12.3,30.16,NW,325,2.0,5.0,23,0.00,,---,0.00,VWS V13.01,2013-03-26 02:35:00,
2013-03-25 20:36:00,48.4,12.3,30.16,NW,325,4.0,7.0,23,0.00,,---,0.00,VWS V13.01,2013-03-26 02:36:00,
2013-03-25 20:38:00,48.4,13.3,30.15,NW,325,4.0,7.0,24,0.00,,---,0.00,VWS V13.01,2013-03-26 02:38:00,
2013-03-25 20:43:00,48.3,13.2,30.16,NW,325,3.0,7.0,24,0.00,,---,0.00,VWS V13.01,2013-03-26 02:43:00,
2013-03-25 20:44:00,48.3,13.2,30.16,NW,325,2.0,7.0,24,0.00,,---,0.00,VWS V13.01,2013-03-26 02:44:00,
2013-03-25 20:47:00,48.3,13.2,30.16,NW,325,3.0,4.0,24,0.00,,---,0.00,VWS V13.01,2013-03-26 02:47:00,
2013-03-25 20:51:00,48.3,13.2,30.16,NW,325,2.0,5.0,24,0.00,,---,0.00,VWS V13.01,2013-03-26 02:51:00,
2013-03-25 20:52:00,48.3,13.2,30.16,NW,325,3.0,5.0,24,0.00,,---,0.00,VWS V13.01,2013-03-26 02:52:00,
2013-03-25 20:55:00,48.3,13.2,30.17,NW,325,3.0,5.0,24,0.00,,---,0.00,VWS V13.01,2013-03-26 02:55:00,
2013-03-25 20:58:00,48.2,13.1,30.17,NW,325,3.0,5.0,24,0.00,,---,0.00,VWS V13.01,2013-03-26 02:58:00,
2013-03-25 20:59:00,48.2,13.1,30.17,NW,325,3.0,5.0,24,0.00,,---,0.00,VWS V13.01,2013-03-26 02:59:00,
2013-03-25 21:00:00,48.1,13.0,30.17,NW,325,3.0,3.0,24,0.00,,---,0.00,VWS V13.01,2013-03-26 03:00:00,
2013-03-25 21:02:00,48.1,13.0,30.15,NW,325,3.0,5.0,24,0.00,,---,0.00,VWS V13.01,2013-03-26 03:02:00,
2013-03-25 21:05:00,48.0,12.9,30.15,NW,325,4.0,7.0,24,0.00,,---,0.00,VWS V13.01,2013-03-26 03:05:00,
2013-03-25 21:08:00,48.0,12.9,30.15,NW,325,4.0,7.0,24,0.00,,---,0.00,VWS V13.01,2013-03-26 03:08:00,
2013-03-25 21:10:00,47.9,12.9,30.15,NW,325,0.0,7.0,24,0.00,,---,0.00,VWS V13.01,2013-03-26 03:10:00,
2013-03-25 21:11:00,47.9,12.9,30.15,NW,325,3.0,7.0,24,0.00,,---,0.00,VWS V13.01,2013-03-26 03:11:00,
2013-03-25 21:13:00,47.9,12.9,30.16,NW,325,3.0,7.0,24,0.00,,---,0.00,VWS V13.01,2013-03-26 03:13:00,
2013-03-25 21:14:00,47.9,12.9,30.16,NW,325,0.0,7.0,24,0.00,,---,0.00,VWS V13.01,2013-03-26 03:14:00,
2013-03-25 21:16:00,47.8,12.8,30.16,NW,325,1.0,3.0,24,0.00,,---,0.00,VWS V13.01,2013-03-26 03:16:00,
2013-03-25 21:20:00,47.8,12.8,30.17,NW,325,0.0,3.0,24,0.00,,---,0.00,VWS V13.01,2013-03-26 03:20:00,
2013-03-25 21:23:00,47.7,13.6,30.17,NW,325,1.0,3.0,25,0.00,,---,0.00,VWS V13.01,2013-03-26 03:23:00,
2013-03-25 21:24:00,47.7,13.6,30.17,NW,325,0.0,3.0,25,0.00,,---,0.00,VWS V13.01,2013-03-26 03:24:00,
2013-03-25 21:26:00,47.6,13.5,30.17,NW,325,0.0,3.0,25,0.00,,---,0.00,VWS V13.01,2013-03-26 03:26:00,
2013-03-25 21:30:00,47.4,13.4,30.18,NW,325,0.0,0.0,25,0.00,,---,0.00,VWS V13.01,2013-03-26 03:30:00,
2013-03-25 21:32:00,47.3,13.3,30.18,NW,325,0.0,0.0,25,0.00,,---,0.00,VWS V13.01,2013-03-26 03:32:00,
2013-03-25 21:33:00,47.2,13.2,30.18,NW,325,0.0,0.0,25,0.00,,---,0.00,VWS V13.01,2013-03-26 03:33:00,
2013-03-25 21:35:00,47.1,13.1,30.18,NW,325,0.0,0.0,25,0.00,,---,0.00,VWS V13.01,2013-03-26 03:35:00,
2013-03-25 21:38:00,46.9,12.9,30.18,NW,325,0.0,0.0,25,0.00,,---,0.00,VWS V13.01,2013-03-26 03:38:00,
2013-03-25 21:40:00,46.7,12.8,30.18,NW,325,0.0,0.0,25,0.00,,---,0.00,VWS V13.01,2013-03-26 03:40:00,
2013-03-25 21:43:00,46.5,12.6,30.19,NW,325,0.0,0.0,25,0.00,,---,0.00,VWS V13.01,2013-03-26 03:43:00,
2013-03-25 21:44:00,46.5,12.6,30.19,NW,325,2.0,2.0,25,0.00,,---,0.00,VWS V13.01,2013-03-26 03:44:00,
2013-03-25 21:46:00,46.4,12.5,30.19,NW,325,1.0,2.0,25,0.00,,---,0.00,VWS V13.01,2013-03-26 03:46:00,
2013-03-25 21:48:00,46.4,12.5,30.19,NW,325,0.0,3.0,25,0.00,,---,0.00,VWS V13.01,2013-03-26 03:48:00,
2013-03-25 21:53:00,46.3,12.4,30.19,NW,325,1.0,5.0,25,0.00,,---,0.00,VWS V13.01,2013-03-26 03:53:00,
2013-03-25 21:54:00,46.3,12.4,30.19,NW,325,3.0,5.0,25,0.00,,---,0.00,VWS V13.01,2013-03-26 03:54:00,
2013-03-25 21:58:00,46.2,12.3,30.20,NW,325,2.0,5.0,25,0.00,,---,0.00,VWS V13.01,2013-03-26 03:58:00,
2013-03-25 21:59:00,46.2,12.3,30.20,NW,325,1.0,5.0,25,0.00,,---,0.00,VWS V13.01,2013-03-26 03:59:00,
2013-03-25 22:00:00,46.1,12.2,30.19,NW,325,3.0,3.0,25,0.00,,---,0.00,VWS V13.01,2013-03-26 04:00:00,
2013-03-25 22:01:00,46.1,12.2,30.18,NW,325,1.0,3.0,25,0.00,,---,0.00,VWS V13.01,2013-03-26 04:01:00,
2013-03-25 22:02:00,46.1,12.2,30.18,NW,325,1.0,3.0,25,0.00,,---,0.00,VWS V13.01,2013-03-26 04:02:00,
2013-03-25 22:06:00,46.1,12.2,30.19,NW,325,1.0,3.0,25,0.00,,---,0.00,VWS V13.01,2013-03-26 04:06:00,
2013-03-25 22:07:00,46.1,12.2,30.19,NW,325,3.0,4.0,25,0.00,,---,0.00,VWS V13.01,2013-03-26 04:07:00,
2013-03-25 22:09:00,46.1,12.2,30.19,NW,325,3.0,4.0,25,0.00,,---,0.00,VWS V13.01,2013-03-26 04:09:00,
2013-03-25 22:12:00,46.0,12.2,30.19,NW,325,2.0,4.0,25,0.00,,---,0.00,VWS V13.01,2013-03-26 04:12:00,
2013-03-25 22:13:00,46.0,12.2,30.19,NW,325,3.0,4.0,25,0.00,,---,0.00,VWS V13.01,2013-03-26 04:13:00,
2013-03-25 22:14:00,46.0,12.2,30.19,NW,325,2.0,5.0,25,0.00,,---,0.00,VWS V13.01,2013-03-26 04:14:00,
2013-03-25 22:19:00,46.0,13.1,30.19,NW,325,2.0,5.0,26,0.00,,---,0.00,VWS V13.01,2013-03-26 04:19:00,
2013-03-25 22:21:00,46.1,13.1,30.19,NW,325,1.0,5.0,26,0.00,,---,0.00,VWS V13.01,2013-03-26 04:21:00,
2013-03-25 22:24:00,46.2,13.2,30.19,NW,325,2.0,5.0,26,0.00,,---,0.00,VWS V13.01,2013-03-26 04:24:00,
2013-03-25 22:25:00,46.2,13.2,30.19,NW,325,2.0,5.0,26,0.00,,---,0.00,VWS V13.01,2013-03-26 04:25:00,
2013-03-25 22:27:00,46.2,13.2,30.19,NW,325,4.0,5.0,26,0.00,,---,0.00,VWS V13.01,2013-03-26 04:27:00,
2013-03-25 22:29:00,46.3,13.3,30.19,NW,325,1.0,5.0,26,0.00,,---,0.00,VWS V13.01,2013-03-26 04:29:00,
2013-03-25 22:31:00,46.3,13.3,30.19,NW,325,4.0,5.0,26,0.00,,---,0.00,VWS V13.01,2013-03-26 04:31:00,
2013-03-25 22:32:00,46.3,13.3,30.19,NW,325,3.0,5.0,26,0.00,,---,0.00,VWS V13.01,2013-03-26 04:32:00,
2013-03-25 22:34:00,46.3,13.3,30.19,NW,325,4.0,6.0,26,0.00,,---,0.00,VWS V13.01,2013-03-26 04:34:00,
2013-03-25 22:35:00,46.3,13.3,30.19,NW,319,5.0,6.0,26,0.00,,---,0.00,VWS V13.01,2013-03-26 04:35:00,
2013-03-25 22:38:00,46.4,13.4,30.19,NW,319,1.0,6.0,26,0.00,,---,0.00,VWS V13.01,2013-03-26 04:38:00,
2013-03-25 22:40:00,46.4,13.4,30.19,NW,318,4.0,6.0,26,0.00,,---,0.00,VWS V13.01,2013-03-26 04:40:00,
2013-03-25 22:42:00,46.4,13.4,30.19,NW,318,3.0,7.0,26,0.00,,---,0.00,VWS V13.01,2013-03-26 04:42:00,
2013-03-25 22:43:00,46.4,13.4,30.19,NW,318,2.0,7.0,26,0.00,,---,0.00,VWS V13.01,2013-03-26 04:43:00,
2013-03-25 22:47:00,46.4,13.4,30.19,NW,318,4.0,5.0,26,0.00,,---,0.00,VWS V13.01,2013-03-26 04:47:00,
2013-03-25 22:48:00,46.4,13.4,30.19,NW,318,4.0,5.0,26,0.00,,---,0.00,VWS V13.01,2013-03-26 04:48:00,
2013-03-25 22:53:00,46.4,13.4,30.20,NW,318,2.0,5.0,26,0.00,,---,0.00,VWS V13.01,2013-03-26 04:53:00,
2013-03-25 22:54:00,46.4,13.4,30.19,NW,318,1.0,5.0,26,0.00,,---,0.00,VWS V13.01,2013-03-26 04:54:00,
2013-03-25 22:55:00,46.4,13.4,30.19,NW,318,2.0,5.0,26,0.00,,---,0.00,VWS V13.01,2013-03-26 04:55:00,
2013-03-25 22:56:00,46.3,13.3,30.19,NW,318,4.0,5.0,26,0.00,,---,0.00,VWS V13.01,2013-03-26 04:56:00,
2013-03-25 22:59:00,46.3,13.3,30.19,NW,318,3.0,5.0,26,0.00,,---,0.00,VWS V13.01,2013-03-26 04:59:00,
2013-03-25 23:01:00,46.3,13.3,30.17,NW,318,3.0,5.0,26,0.00,,---,0.00,VWS V13.01,2013-03-26 05:01:00,
2013-03-25 23:02:00,46.2,13.2,30.17,NW,318,2.0,5.0,26,0.00,,---,0.00,VWS V13.01,2013-03-26 05:02:00,
2013-03-25 23:07:00,46.1,13.1,30.17,NW,318,3.0,6.0,26,0.00,,---,0.00,VWS V13.01,2013-03-26 05:07:00,
2013-03-25 23:12:00,46.1,13.1,30.17,NW,318,4.0,6.0,26,0.00,,---,0.00,VWS V13.01,2013-03-26 05:12:00,
2013-03-25 23:13:00,46.0,13.1,30.17,NW,318,4.0,6.0,26,0.00,,---,0.00,VWS V13.01,2013-03-26 05:13:00,
2013-03-25 23:16:00,46.1,13.1,30.17,NW,317,3.0,5.0,26,0.00,,---,0.00,VWS V13.01,2013-03-26 05:16:00,
2013-03-25 23:17:00,46.0,13.1,30.17,NW,317,2.0,5.0,26,0.00,,---,0.00,VWS V13.01,2013-03-26 05:17:00,
2013-03-25 23:18:00,46.0,13.1,30.17,ENE,57,3.0,9.0,26,0.00,,---,0.00,VWS V13.01,2013-03-26 05:18:00,
2013-03-25 23:22:00,45.4,11.6,30.18,NNE,26,1.0,9.0,25,0.00,,---,0.00,VWS V13.01,2013-03-26 05:22:00,
2013-03-25 23:23:00,45.2,11.5,30.19,NNE,26,4.0,9.0,25,0.00,,---,0.00,VWS V13.01,2013-03-26 05:23:00,
2013-03-25 23:24:00,45.0,11.3,30.19,NNE,26,1.0,9.0,25,0.00,,---,0.00,VWS V13.01,2013-03-26 05:24:00,
2013-03-25 23:28:00,44.3,10.7,30.19,NNW,331,6.0,9.0,25,0.00,,---,0.00,VWS V13.01,2013-03-26 05:28:00,
2013-03-25 23:29:00,44.1,10.5,30.19,NNW,332,5.0,9.0,25,0.00,,---,0.00,VWS V13.01,2013-03-26 05:29:00,
2013-03-25 23:31:00,43.7,10.2,30.19,NNW,332,4.0,6.0,25,0.00,,---,0.00,VWS V13.01,2013-03-26 05:31:00,
2013-03-25 23:35:00,43.0,9.6,30.20,NNW,332,5.0,9.0,25,0.00,,---,0.00,VWS V13.01,2013-03-26 05:35:00,
2013-03-25 23:36:00,42.8,9.4,30.20,NNW,332,5.0,9.0,25,0.00,,---,0.00,VWS V13.01,2013-03-26 05:36:00,
2013-03-25 23:41:00,42.2,8.9,30.20,NNW,346,2.0,9.0,25,0.00,,---,0.00,VWS V13.01,2013-03-26 05:41:00,
2013-03-25 23:42:00,42.1,8.8,30.20,NNW,344,2.0,9.0,25,0.00,,---,0.00,VWS V13.01,2013-03-26 05:42:00,
2013-03-25 23:43:00,42.0,8.7,30.20,NNW,344,5.0,9.0,25,0.00,,---,0.00,VWS V13.01,2013-03-26 05:43:00,
2013-03-25 23:48:00,41.6,9.3,30.20,North,349,4.0,10.0,26,0.00,,---,0.00,VWS V13.01,2013-03-26 05:48:00,
2013-03-25 23:49:00,41.5,9.2,30.20,North,349,5.0,10.0,26,0.00,,---,0.00,VWS V13.01,2013-03-26 05:49:00,
2013-03-25 23:52:00,41.3,9.0,30.21,NNW,344,4.0,10.0,26,0.00,,---,0.00,VWS V13.01,2013-03-26 05:52:00,
2013-03-25 23:54:00,41.2,8.9,30.21,NNW,340,4.0,11.0,26,0.00,,---,0.00,VWS V13.01,2013-03-26 05:54:00,
2013-03-25 23:55:00,41.2,8.9,30.21,NNW,341,2.0,11.0,26,0.00,,---,0.00,VWS V13.01,2013-03-26 05:55:00,
2013-03-25 23:57:00,41.1,8.8,30.21,NNW,339,10.0,11.0,26,0.00,,---,0.00,VWS V13.01,2013-03-26 05:57:00,
2013-03-25 23:59:00,41.1,8.8,30.21,NNW,344,4.0,11.0,26,0.00,,---,0.00,VWS V13.01,2013-03-26 05:59:00,